M I D A S
Marine Information and Data Acquisition System
Tripno 2071 of the Zeeleeuw from 2011-04-04 06:47:19 to 2011-04-04 15:57:38
Back to CruiseResearch ActivitiesStationsMapUnderway DataData graphs

EquipmentUnitsComment
TimeDGPSUTC
LatitudeDGPSDM.mWGS84
LongitudeDGPSDM.mWGS84
TemperatureSBE03/SBE38deg celciusITS90
ConductivitySBE21S/mITS90
SalinitySBE21 Practical Salinity Units
ChlorophylAChelsea fluorimeterg/lCalibrated in Aceton
Missing or incorrect values are displayed as -999
Sea surface data collected by the RV Zeeleeuw from 2011-04-04 06:23:44 to 2011-04-04 16:08:32
                                                                                    Next 1000 lines
Time Latitude Longitude Temperature Conductivity Salinity ChlorophylA
2011-04-04 06:23:53 51°13.598 2°56.094 16.4032 4.5E-5 0.011409 -3.020363
2011-04-04 06:23:58 51°13.598 2°56.094 16.3891 4.5E-5 0.011409 -3.020363
2011-04-04 06:24:03 51°13.598 2°56.094 16.3873 4.5E-5 0.011408 -3.020363
2011-04-04 06:24:08 51°13.598 2°56.094 16.4129 4.5E-5 0.011407 -3.020363
2011-04-04 06:24:13 51°13.598 2°56.094 16.4168 4.5E-5 0.011407 -3.020363
2011-04-04 06:24:18 51°13.598 2°56.094 16.3933 4.5E-5 0.011407 -3.020363
2011-04-04 06:24:23 51°13.598 2°56.094 16.388 4.5E-5 0.011406 -3.020363
2011-04-04 06:24:28 51°13.598 2°56.094 16.3883 4.5E-5 0.011406 -3.020363
2011-04-04 06:24:33 51°13.598 2°56.094 16.39 4.5E-5 0.011405 -3.020363
2011-04-04 06:24:38 51°13.598 2°56.094 16.3881 4.5E-5 0.011404 -3.020363
2011-04-04 06:24:44 51°13.598 2°56.094 16.3866 4.5E-5 0.011404 -3.020363
2011-04-04 06:24:48 51°13.598 2°56.094 16.3865 4.5E-5 0.011404 -3.020363
2011-04-04 06:24:53 51°13.598 2°56.094 16.3944 4.5E-5 0.011403 -3.020363
2011-04-04 06:24:58 51°13.597 2°56.094 16.4099 4.5E-5 0.011403 -3.020363
2011-04-04 06:25:03 51°13.597 2°56.094 16.419 4.5E-5 0.011402 -3.020363
2011-04-04 06:25:08 51°13.597 2°56.094 16.4168 4.5E-5 0.011401 -3.020363
2011-04-04 06:25:13 51°13.597 2°56.094 16.4166 4.5E-5 0.011401 -3.020363
2011-04-04 06:25:18 51°13.597 2°56.094 16.4223 4.5E-5 0.011401 -3.020363
2011-04-04 06:25:23 51°13.597 2°56.094 16.4067 4.5E-5 0.011401 -3.020363
2011-04-04 06:25:28 51°13.597 2°56.094 16.4254 4.5E-5 0.0114 -3.020363
2011-04-04 06:25:34 51°13.597 2°56.094 16.4299 4.5E-5 0.011399 -3.020363
2011-04-04 06:25:38 51°13.597 2°56.094 16.439 4.5E-5 0.011399 -3.020363
2011-04-04 06:25:43 51°13.597 2°56.094 16.4467 4.5E-5 0.011398 -3.020363
2011-04-04 06:25:48 51°13.597 2°56.094 16.4424 4.5E-5 0.011398 -3.020363
2011-04-04 06:25:53 51°13.597 2°56.094 16.4337 4.5E-5 0.011398 -3.020363
2011-04-04 06:25:58 51°13.597 2°56.094 16.4372 -999 -999 -3.020363
2011-04-04 06:26:03 51°13.597 2°56.094 16.4311 4.5E-5 0.011397 -3.020363
2011-04-04 06:26:08 51°13.597 2°56.094 16.4356 4.5E-5 0.011396 -3.020363
2011-04-04 06:26:13 51°13.597 2°56.094 16.4538 4.5E-5 0.011396 -3.020363
2011-04-04 06:26:19 51°13.597 2°56.094 16.4592 4.5E-5 0.011396 -3.020363
2011-04-04 06:26:23 51°13.597 2°56.094 16.4549 4.5E-5 0.011395 -3.020363
2011-04-04 06:26:29 51°13.598 2°56.094 16.4458 4.5E-5 0.011395 -3.020363
2011-04-04 06:26:33 51°13.598 2°56.094 16.4341 4.5E-5 0.011394 -3.020363
2011-04-04 06:26:38 51°13.598 2°56.094 16.4371 4.5E-5 0.011394 -3.020363
2011-04-04 06:26:43 51°13.598 2°56.095 16.4284 4.5E-5 0.011393 -3.020363
2011-04-04 06:26:48 51°13.598 2°56.095 16.4229 4.5E-5 0.011393 -3.020363
2011-04-04 06:26:53 51°13.598 2°56.095 16.4317 4.5E-5 0.011393 -3.020363
2011-04-04 06:26:58 51°13.598 2°56.094 16.4203 4.5E-5 0.011392 -3.020363
2011-04-04 06:27:03 51°13.598 2°56.095 16.4147 4.5E-5 0.011392 -3.020363
2011-04-04 06:27:08 51°13.598 2°56.094 16.4138 4.5E-5 0.011391 -3.020363
2011-04-04 06:27:13 51°13.597 2°56.094 16.4054 4.5E-5 0.011391 -3.020363
2011-04-04 06:27:18 51°13.597 2°56.094 16.409 4.5E-5 0.011391 -3.020363
2011-04-04 06:27:23 51°13.597 2°56.094 16.4062 4.5E-5 0.01139 -3.020363
2011-04-04 06:27:28 51°13.598 2°56.094 16.4121 4.5E-5 0.01139 -3.020363
2011-04-04 06:27:33 51°13.598 2°56.094 16.4218 4.5E-5 0.011389 -3.020363
2011-04-04 06:27:38 51°13.598 2°56.094 16.4281 4.5E-5 0.011389 -3.020363
2011-04-04 06:27:43 51°13.598 2°56.094 16.426 4.5E-5 0.011388 -3.020363
2011-04-04 06:27:48 51°13.598 2°56.094 16.4315 4.5E-5 0.011388 -3.020363
2011-04-04 06:27:53 51°13.598 2°56.094 16.4404 4.5E-5 0.011388 -3.020363
2011-04-04 06:27:58 51°13.598 2°56.095 16.4591 4.5E-5 0.011387 -3.020363
2011-04-04 06:28:03 51°13.598 2°56.095 16.4616 4.5E-5 0.011387 -3.020363
2011-04-04 06:28:08 51°13.598 2°56.095 16.4756 4.5E-5 0.011386 -3.020363
2011-04-04 06:28:13 51°13.598 2°56.095 16.4689 4.5E-5 0.011386 -3.020363
2011-04-04 06:28:18 51°13.598 2°56.095 16.4561 4.5E-5 0.011386 -3.020363
2011-04-04 06:28:24 51°13.598 2°56.095 16.4458 4.5E-5 0.011385 -3.020363
2011-04-04 06:28:29 51°13.598 2°56.095 16.4511 4.5E-5 0.011385 -3.020363
2011-04-04 06:28:34 51°13.598 2°56.095 16.4307 4.5E-5 0.011384 -3.020363
2011-04-04 06:28:39 51°13.599 2°56.095 16.4403 4.5E-5 0.011384 -3.020363
2011-04-04 06:28:43 51°13.599 2°56.095 16.4378 4.5E-5 0.011383 -3.020363
2011-04-04 06:28:48 51°13.599 2°56.095 16.4249 4.5E-5 0.011383 -3.020363
2011-04-04 06:28:53 51°13.599 2°56.095 16.4314 4.5E-5 0.011383 -3.020363
2011-04-04 06:28:58 51°13.599 2°56.095 16.4202 4.5E-5 0.011383 -3.020363
2011-04-04 06:29:03 51°13.599 2°56.096 16.4214 4.5E-5 0.011382 -3.020363
2011-04-04 06:29:09 51°13.599 2°56.095 16.4336 4.5E-5 0.011382 -3.020363
2011-04-04 06:29:13 51°13.599 2°56.095 16.4234 4.5E-5 0.011381 -3.020363
2011-04-04 06:29:18 51°13.599 2°56.096 16.4235 4.5E-5 0.011381 -3.020363
2011-04-04 06:29:23 51°13.599 2°56.096 16.4363 4.5E-5 0.01138 -3.020363
2011-04-04 06:29:28 51°13.599 2°56.096 16.445 4.5E-5 0.01138 -3.020363
2011-04-04 06:29:33 51°13.599 2°56.095 16.4304 4.5E-5 0.01138 -3.020363
2011-04-04 06:29:38 51°13.599 2°56.095 16.4273 4.5E-5 0.011379 -3.020363
2011-04-04 06:29:43 51°13.599 2°56.095 16.4357 4.5E-5 0.011379 -3.020363
2011-04-04 06:29:49 51°13.599 2°56.095 16.4547 4.5E-5 0.011379 -3.020363
2011-04-04 06:29:53 51°13.599 2°56.095 16.4606 4.5E-5 0.011378 -3.020363
2011-04-04 06:29:58 51°13.599 2°56.095 16.4801 4.5E-5 0.011378 -3.020363
2011-04-04 06:30:03 51°13.599 2°56.095 16.4873 4.5E-5 0.011377 -3.020363
2011-04-04 06:30:08 51°13.599 2°56.095 16.479 4.5E-5 0.011377 -3.020363
2011-04-04 06:30:13 51°13.599 2°56.095 16.4856 4.5E-5 0.011376 -3.020363
2011-04-04 06:30:18 51°13.599 2°56.095 16.484 4.5E-5 0.011376 -3.020363
2011-04-04 06:30:23 51°13.599 2°56.094 16.478 4.5E-5 0.011376 -3.020363
2011-04-04 06:30:28 51°13.599 2°56.095 16.4808 4.5E-5 0.011375 -3.020363
2011-04-04 06:30:33 51°13.599 2°56.095 16.4861 4.5E-5 0.011375 -3.020363
2011-04-04 06:30:38 51°13.599 2°56.095 16.4884 4.5E-5 0.011374 -3.020363
2011-04-04 06:30:43 51°13.599 2°56.095 16.4901 4.5E-5 0.011374 -3.020363
2011-04-04 06:30:48 51°13.599 2°56.095 16.484 4.5E-5 0.011374 -3.020363
2011-04-04 06:30:53 51°13.599 2°56.095 16.4841 4.5E-5 0.011373 -3.020363
2011-04-04 06:30:58 51°13.599 2°56.095 16.4737 4.5E-5 0.011373 -3.020363
2011-04-04 06:31:03 51°13.599 2°56.095 16.4798 4.5E-5 0.011372 -3.020363
2011-04-04 06:31:09 51°13.599 2°56.095 16.4678 4.5E-5 0.011372 -3.020363
2011-04-04 06:31:13 51°13.599 2°56.095 16.4683 4.5E-5 0.011371 -3.020363
2011-04-04 06:31:18 51°13.599 2°56.095 16.4682 4.5E-5 0.011371 -3.020363
2011-04-04 06:31:23 51°13.599 2°56.095 16.473 4.5E-5 0.011371 -3.020363
2011-04-04 06:31:28 51°13.599 2°56.095 16.4798 4.5E-5 0.011371 -3.020363
2011-04-04 06:31:33 51°13.599 2°56.095 16.4747 4.5E-5 0.01137 -3.020363
2011-04-04 06:31:38 51°13.599 2°56.096 16.4769 4.5E-5 0.011369 -3.020363
2011-04-04 06:31:43 51°13.599 2°56.096 16.4817 4.5E-5 0.011369 -3.020363
2011-04-04 06:31:48 51°13.599 2°56.096 16.4811 4.5E-5 0.011369 -3.020363
2011-04-04 06:31:53 51°13.599 2°56.096 16.4765 4.5E-5 0.011369 -3.020363
2011-04-04 06:31:58 51°13.599 2°56.096 16.4814 4.5E-5 0.011368 -3.020363
2011-04-04 06:32:04 51°13.599 2°56.096 16.4756 4.5E-5 0.011367 -3.020363
2011-04-04 06:32:08 51°13.599 2°56.096 16.4779 4.5E-5 0.011367 -3.020363
2011-04-04 06:32:13 51°13.599 2°56.096 16.4816 4.5E-5 0.011367 -3.020363
2011-04-04 06:32:18 51°13.599 2°56.096 16.4807 4.5E-5 0.011367 -3.020363
2011-04-04 06:32:23 51°13.599 2°56.095 16.4848 4.5E-5 0.011366 -3.020363
2011-04-04 06:32:28 51°13.599 2°56.095 16.4831 4.5E-5 0.011366 -3.020363
2011-04-04 06:32:34 51°13.598 2°56.095 16.4854 4.5E-5 0.011365 -3.020363
2011-04-04 06:32:38 51°13.598 2°56.096 16.4767 4.5E-5 0.011365 -3.020363
2011-04-04 06:32:43 51°13.599 2°56.096 16.4736 4.5E-5 0.011364 -3.020363
2011-04-04 06:32:48 51°13.599 2°56.096 16.4788 4.5E-5 0.011364 -3.020363
2011-04-04 06:32:53 51°13.599 2°56.096 16.4733 4.5E-5 0.011364 -3.020363
2011-04-04 06:32:58 51°13.599 2°56.096 16.4646 4.5E-5 0.011363 -3.020363
2011-04-04 06:33:03 51°13.599 2°56.096 16.4681 4.5E-5 0.011363 -3.020363
2011-04-04 06:33:08 51°13.599 2°56.096 16.4658 4.5E-5 0.011362 -3.020363
2011-04-04 06:33:13 51°13.599 2°56.096 16.4687 4.5E-5 0.011362 -3.020363
2011-04-04 06:33:18 51°13.599 2°56.096 16.4794 4.5E-5 0.011362 -3.020363
2011-04-04 06:33:23 51°13.599 2°56.096 16.4844 4.5E-5 0.011361 -3.020363
2011-04-04 06:33:29 51°13.599 2°56.096 16.4883 4.5E-5 0.011361 -3.020363
2011-04-04 06:33:33 51°13.599 2°56.096 16.4861 4.5E-5 0.01136 -3.020363
2011-04-04 06:33:38 51°13.599 2°56.096 16.4866 4.5E-5 0.01136 -3.020363
2011-04-04 06:33:43 51°13.599 2°56.096 16.491 4.5E-5 0.011359 -3.020363
2011-04-04 06:33:48 51°13.599 2°56.096 16.492 4.5E-5 0.011359 -3.020363
2011-04-04 06:33:53 51°13.599 2°56.096 16.4932 4.5E-5 0.011359 -3.020363
2011-04-04 06:33:58 51°13.599 2°56.096 16.4963 4.5E-5 0.011359 -3.020363
2011-04-04 06:34:03 51°13.599 2°56.096 16.4973 4.5E-5 0.011358 -3.020363
2011-04-04 06:34:08 51°13.599 2°56.096 16.4965 4.5E-5 0.011358 -3.020363
2011-04-04 06:34:13 51°13.598 2°56.096 16.5067 4.5E-5 0.011358 -3.020363
2011-04-04 06:34:18 51°13.599 2°56.096 16.5084 4.5E-5 0.011358 -3.020363
2011-04-04 06:34:23 51°13.599 2°56.096 16.5295 4.5E-5 0.011357 -3.020363
2011-04-04 06:34:28 51°13.599 2°56.096 16.5164 4.5E-5 0.011356 -3.020363
2011-04-04 06:34:33 51°13.599 2°56.096 16.4919 4.5E-5 0.011356 -3.020363
2011-04-04 06:34:38 51°13.599 2°56.095 16.4774 4.5E-5 0.011356 -3.020363
2011-04-04 06:34:43 51°13.599 2°56.096 16.4311 4.5E-5 0.011355 -3.020363
2011-04-04 06:34:48 51°13.599 2°56.096 16.4434 4.5E-5 0.011355 -3.020363
2011-04-04 06:34:52 51°13.599 2°56.095 16.4543 4.5E-5 0.011355 -3.020363
2011-04-04 06:34:57 51°13.599 2°56.096 16.4518 4.5E-5 0.011354 -3.020363
2011-04-04 06:35:02 51°13.599 2°56.095 16.4508 4.5E-5 0.011354 -3.020363
2011-04-04 06:35:07 51°13.598 2°56.095 16.4492 4.5E-5 0.011353 -3.020363
2011-04-04 06:35:12 51°13.598 2°56.095 16.4579 4.5E-5 0.011353 -3.020363
2011-04-04 06:35:17 51°13.598 2°56.095 16.4705 4.5E-5 0.011353 -3.020363
2011-04-04 06:35:23 51°13.598 2°56.095 16.4799 4.5E-5 0.011353 -3.020363
2011-04-04 06:35:27 51°13.598 2°56.095 16.4776 4.5E-5 0.011352 -3.020363
2011-04-04 06:35:33 51°13.598 2°56.095 16.4769 4.5E-5 0.011352 -3.020363
2011-04-04 06:35:37 51°13.598 2°56.095 16.481 4.5E-5 0.011351 -3.020363
2011-04-04 06:35:42 51°13.598 2°56.095 16.4857 4.5E-5 0.011351 -3.020363
2011-04-04 06:35:47 51°13.598 2°56.095 16.4824 4.5E-5 0.011351 -3.020363
2011-04-04 06:35:52 51°13.598 2°56.095 16.4818 4.5E-5 0.01135 -3.020363
2011-04-04 06:35:57 51°13.598 2°56.095 16.4957 4.5E-5 0.01135 -3.020363
2011-04-04 06:36:01 51°13.598 2°56.095 16.4948 4.5E-5 0.011349 -3.020363
2011-04-04 06:36:06 51°13.598 2°56.095 16.4979 4.5E-5 0.011349 -3.020363
2011-04-04 06:36:11 51°13.598 2°56.095 16.5054 4.5E-5 0.011349 -3.020363
2011-04-04 06:36:16 51°13.598 2°56.095 16.4995 4.5E-5 0.011349 -3.020363
2011-04-04 06:36:21 51°13.598 2°56.095 16.5117 4.5E-5 0.011348 -3.020363
2011-04-04 06:36:25 51°13.598 2°56.095 16.5153 4.5E-5 0.011348 -3.020363
2011-04-04 06:36:30 51°13.598 2°56.095 16.52 4.5E-5 0.011347 -3.020363
2011-04-04 06:36:35 51°13.598 2°56.095 16.53 4.5E-5 0.011346 -3.020363
2011-04-04 06:36:40 51°13.598 2°56.095 16.5208 4.5E-5 0.011346 -3.020363
2011-04-04 06:36:45 51°13.598 2°56.096 16.508 4.5E-5 0.011346 -3.020363
2011-04-04 06:36:50 51°13.599 2°56.096 16.488 4.5E-5 0.011346 -3.020363
2011-04-04 06:36:55 51°13.599 2°56.096 16.4688 4.5E-5 0.011345 -3.020363
2011-04-04 06:37:00 51°13.599 2°56.096 16.4711 4.5E-5 0.011345 -3.020363
2011-04-04 06:37:05 51°13.598 2°56.096 16.4736 4.5E-5 0.011344 -3.020363
2011-04-04 06:37:10 51°13.598 2°56.096 16.4756 4.5E-5 0.011344 -3.020363
2011-04-04 06:37:15 51°13.598 2°56.095 16.4682 4.5E-5 0.011344 -3.020363
2011-04-04 06:37:20 51°13.598 2°56.095 16.4762 4.5E-5 0.011343 -3.020363
2011-04-04 06:37:25 51°13.598 2°56.095 16.5011 4.5E-5 0.011342 -3.020363
2011-04-04 06:37:29 51°13.598 2°56.095 16.4942 4.5E-5 0.011342 -3.020363
2011-04-04 06:37:36 51°13.598 2°56.095 16.4976 4.5E-5 0.011341 -3.020363
2011-04-04 06:37:41 51°13.598 2°56.095 16.5129 4.5E-5 0.011341 -3.020363
2011-04-04 06:37:45 51°13.598 2°56.095 16.5243 4.5E-5 0.011341 -3.020363
2011-04-04 06:37:51 51°13.598 2°56.095 16.5232 4.5E-5 0.01134 -3.020363
2011-04-04 06:37:56 51°13.598 2°56.095 16.5227 4.5E-5 0.01134 -3.020363
2011-04-04 06:38:02 51°13.598 2°56.095 16.5333 4.5E-5 0.01134 -3.020363
2011-04-04 06:38:06 51°13.598 2°56.095 16.5406 4.5E-5 0.011339 -3.020363
2011-04-04 06:38:11 51°13.598 2°56.095 16.5478 4.5E-5 0.011338 -3.020363
2011-04-04 06:38:16 51°13.598 2°56.095 16.5476 4.5E-5 0.011338 -3.020363
2011-04-04 06:38:21 51°13.598 2°56.095 16.5454 4.5E-5 0.011338 -3.020363
2011-04-04 06:38:26 51°13.598 2°56.095 16.552 4.5E-5 0.011338 -3.020363
2011-04-04 06:38:31 51°13.598 2°56.095 16.5523 4.5E-5 0.011337 -3.020363
2011-04-04 06:38:36 51°13.599 2°56.095 16.5416 4.5E-5 0.011337 -3.020363
2011-04-04 06:38:42 51°13.599 2°56.095 16.5384 4.5E-5 0.011336 -3.020363
2011-04-04 06:38:46 51°13.599 2°56.095 16.5401 4.5E-5 0.011336 -3.020363
2011-04-04 06:38:51 51°13.598 2°56.095 16.5401 4.5E-5 0.011335 -3.020363
2011-04-04 06:38:56 51°13.598 2°56.095 16.5417 4.5E-5 0.011335 -3.020363
2011-04-04 06:39:01 51°13.598 2°56.095 16.5328 4.5E-5 0.011335 -3.020363
2011-04-04 06:39:06 51°13.598 2°56.095 16.5275 4.5E-5 0.011334 -3.020363
2011-04-04 06:39:11 51°13.598 2°56.094 16.529 4.5E-5 0.011334 -3.020363
2011-04-04 06:39:15 51°13.598 2°56.094 16.5205 4.5E-5 0.011334 -3.020363
2011-04-04 06:39:20 51°13.598 2°56.094 16.5164 4.5E-5 0.011333 -3.020363
2011-04-04 06:39:26 51°13.598 2°56.095 16.5198 4.5E-5 0.011333 -3.020363
2011-04-04 06:39:31 51°13.598 2°56.095 16.5192 4.5E-5 0.011332 -3.020363
2011-04-04 06:39:36 51°13.598 2°56.095 16.5253 4.5E-5 0.011332 -3.020363
2011-04-04 06:39:40 51°13.598 2°56.095 16.516 4.5E-5 0.011332 -3.020363
2011-04-04 06:39:45 51°13.598 2°56.095 16.5264 4.5E-5 0.011332 -3.020363
2011-04-04 06:39:50 51°13.598 2°56.095 16.5218 4.5E-5 0.011331 -3.020363
2011-04-04 06:39:56 51°13.598 2°56.094 16.5307 4.5E-5 0.011331 -3.020363
2011-04-04 06:40:01 51°13.598 2°56.094 16.5266 4.5E-5 0.01133 -3.020363
2011-04-04 06:40:06 51°13.598 2°56.094 16.5298 4.5E-5 0.01133 -3.020363
2011-04-04 06:40:11 51°13.598 2°56.094 16.5303 4.5E-5 0.011329 -3.020363
2011-04-04 06:40:15 51°13.597 2°56.094 16.5366 4.5E-5 0.011329 -3.020363
2011-04-04 06:40:22 51°13.597 2°56.093 16.5358 4.5E-5 0.011329 -3.020363
2011-04-04 06:40:26 51°13.597 2°56.093 16.5419 4.5E-5 0.011328 -3.020363
2011-04-04 06:40:31 51°13.597 2°56.094 16.5424 4.5E-5 0.011328 -3.020363
2011-04-04 06:40:36 51°13.597 2°56.094 16.5429 4.5E-5 0.011328 -3.020363
2011-04-04 06:40:41 51°13.597 2°56.094 16.54 4.5E-5 0.011327 -3.020363
2011-04-04 06:40:46 51°13.597 2°56.094 16.535 4.5E-5 0.011327 -3.020363
2011-04-04 06:40:50 51°13.598 2°56.094 16.5313 4.5E-5 0.011327 -3.020363
2011-04-04 06:40:55 51°13.597 2°56.094 16.5291 4.5E-5 0.011326 -3.020363
2011-04-04 06:41:00 51°13.597 2°56.094 16.5296 4.5E-5 0.011326 -3.020363
2011-04-04 06:41:06 51°13.597 2°56.094 16.5339 4.5E-5 0.011325 -3.020363
2011-04-04 06:41:11 51°13.597 2°56.094 16.5167 4.5E-5 0.011325 -3.020363
2011-04-04 06:41:15 51°13.597 2°56.094 16.5078 4.5E-5 0.011325 -3.020363
2011-04-04 06:41:20 51°13.598 2°56.095 16.5091 4.5E-5 0.011325 -3.020363
2011-04-04 06:41:26 51°13.598 2°56.095 16.5152 4.5E-5 0.011324 -3.020363
2011-04-04 06:41:31 51°13.598 2°56.095 16.519 4.5E-5 0.011324 -3.020363
2011-04-04 06:41:35 51°13.598 2°56.095 16.5224 4.5E-5 0.011323 -3.020363
2011-04-04 06:41:40 51°13.598 2°56.095 16.5482 4.5E-5 0.011323 -3.020363
2011-04-04 06:41:46 51°13.597 2°56.094 16.5352 4.5E-5 0.011323 -3.020363
2011-04-04 06:41:51 51°13.597 2°56.094 16.5478 4.5E-5 0.011322 -3.020363
2011-04-04 06:41:56 51°13.597 2°56.095 16.5219 4.5E-5 0.011322 -3.020363
2011-04-04 06:42:01 51°13.597 2°56.095 16.5435 4.5E-5 0.011322 -3.020363
2011-04-04 06:42:06 51°13.597 2°56.095 16.5229 4.5E-5 0.011321 -3.020363
2011-04-04 06:42:11 51°13.597 2°56.095 16.5404 4.5E-5 0.011321 -3.020363
2011-04-04 06:42:15 51°13.597 2°56.095 16.5324 4.5E-5 0.011321 -3.020363
2011-04-04 06:42:20 51°13.597 2°56.095 16.5278 4.5E-5 0.01132 -3.020363
2011-04-04 06:42:25 51°13.597 2°56.095 16.5382 4.5E-5 0.01132 -3.020363
2011-04-04 06:42:31 51°13.597 2°56.095 16.54 4.5E-5 0.01132 -3.020363
2011-04-04 06:42:36 51°13.597 2°56.095 16.547 4.5E-5 0.011319 -3.020363
2011-04-04 06:42:41 51°13.597 2°56.095 16.5448 4.5E-5 0.011319 -3.020363
2011-04-04 06:42:46 51°13.597 2°56.095 16.5513 4.5E-5 0.011319 -3.020363
2011-04-04 06:42:51 51°13.597 2°56.095 16.5475 4.5E-5 0.011318 -3.020363
2011-04-04 06:42:56 51°13.597 2°56.095 16.5422 4.5E-5 0.011318 -3.020363
2011-04-04 06:43:01 51°13.597 2°56.095 16.5546 4.5E-5 0.011318 -3.020363
2011-04-04 06:43:07 51°13.597 2°56.095 16.5379 4.5E-5 0.011317 -3.020363
2011-04-04 06:43:13 51°13.597 2°56.095 16.5374 4.5E-5 0.011317 -3.020363
2011-04-04 06:43:16 51°13.597 2°56.095 16.533 4.5E-5 0.011317 -3.020363
2011-04-04 06:43:22 51°13.597 2°56.094 16.531 4.5E-5 0.011317 -3.020363
2011-04-04 06:43:27 51°13.597 2°56.094 16.5291 4.5E-5 0.011316 -3.020363
2011-04-04 06:43:32 51°13.597 2°56.094 16.5291 4.5E-5 0.011315 -3.020363
2011-04-04 06:43:37 51°13.597 2°56.094 16.5367 4.5E-5 0.011315 -3.020363
2011-04-04 06:43:41 51°13.597 2°56.094 16.5377 4.5E-5 0.011315 -3.020363
2011-04-04 06:43:46 51°13.597 2°56.094 16.544 4.5E-5 0.011315 -3.020363
2011-04-04 06:43:51 51°13.597 2°56.094 16.5516 4.5E-5 0.011314 -3.020363
2011-04-04 06:43:57 51°13.597 2°56.094 16.5478 4.5E-5 0.011314 -3.020363
2011-04-04 06:44:02 51°13.597 2°56.094 16.5503 4.5E-5 0.011314 -3.020363
2011-04-04 06:44:07 51°13.598 2°56.094 16.537 4.5E-5 0.011313 -3.020363
2011-04-04 06:44:12 51°13.598 2°56.094 16.5363 4.5E-5 0.011313 -3.020363
2011-04-04 06:44:17 51°13.598 2°56.094 16.5392 4.5E-5 0.011313 -3.020363
2011-04-04 06:44:22 51°13.597 2°56.094 16.5354 4.5E-5 0.011312 -3.020363
2011-04-04 06:44:26 51°13.597 2°56.094 16.5603 4.5E-5 0.011312 -3.020363
2011-04-04 06:44:31 51°13.597 2°56.094 16.555 4.5E-5 0.011312 -3.020363
2011-04-04 06:44:36 51°13.598 2°56.094 16.5505 4.5E-5 0.011312 -3.020363
2011-04-04 06:44:41 51°13.598 2°56.094 16.5551 4.5E-5 0.011311 -3.020363
2011-04-04 06:44:46 51°13.598 2°56.094 16.5553 4.5E-5 0.011311 -3.020363
2011-04-04 06:44:50 51°13.598 2°56.094 16.5591 4.5E-5 0.01131 -3.020363
2011-04-04 06:44:55 51°13.598 2°56.094 16.5616 4.5E-5 0.01131 -3.020363
2011-04-04 06:45:00 51°13.598 2°56.094 16.5607 4.5E-5 0.01131 -3.020363
2011-04-04 06:45:06 51°13.598 2°56.094 16.561 4.5E-5 0.01131 -3.020363
2011-04-04 06:45:10 51°13.598 2°56.094 16.5679 4.5E-5 0.011309 -3.020363
2011-04-04 06:45:15 51°13.598 2°56.094 16.5695 4.5E-5 0.011309 -3.020363
2011-04-04 06:45:20 51°13.598 2°56.094 16.5651 4.5E-5 0.011309 -3.020363
2011-04-04 06:45:25 51°13.598 2°56.094 16.5549 4.5E-5 0.011308 -3.020363
2011-04-04 06:45:31 51°13.598 2°56.095 16.5594 4.5E-5 0.011308 -3.020363
2011-04-04 06:45:35 51°13.598 2°56.095 16.561 4.5E-5 0.011308 -3.020363
2011-04-04 06:45:41 51°13.598 2°56.095 16.5639 4.5E-5 0.011307 -3.020363
2011-04-04 06:45:45 51°13.598 2°56.095 16.5672 4.5E-5 0.011307 -3.020363
2011-04-04 06:45:51 51°13.598 2°56.095 16.5689 4.5E-5 0.011307 -3.020363
2011-04-04 06:45:56 51°13.598 2°56.095 16.5658 4.5E-5 0.011307 -3.020363
2011-04-04 06:46:00 51°13.598 2°56.095 16.5759 4.5E-5 0.011306 -3.020363
2011-04-04 06:46:05 51°13.598 2°56.095 16.5736 4.5E-5 0.011306 -3.020363
2011-04-04 06:46:10 51°13.598 2°56.095 16.5822 4.5E-5 0.011305 -3.020363
2011-04-04 06:46:15 51°13.598 2°56.095 16.5769 4.5E-5 0.011305 -3.020363
2011-04-04 06:46:20 51°13.597 2°56.094 16.5822 4.5E-5 0.011305 -3.020363
2011-04-04 06:46:24 51°13.597 2°56.094 16.5783 4.5E-5 0.011305 -3.020363
2011-04-04 06:46:29 51°13.597 2°56.094 16.5796 4.5E-5 0.011304 -3.020363
2011-04-04 06:46:35 51°13.597 2°56.095 16.5832 4.5E-5 0.011304 -3.020363
2011-04-04 06:46:41 51°13.597 2°56.095 16.5914 4.5E-5 0.011304 -3.020363
2011-04-04 06:46:45 51°13.597 2°56.095 16.593 4.5E-5 0.011304 -3.020363
2011-04-04 06:46:51 51°13.597 2°56.095 16.5932 4.5E-5 0.011303 -3.020363
2011-04-04 06:46:57 51°13.597 2°56.095 16.5942 4.5E-5 0.011303 -3.020363
2011-04-04 06:47:02 51°13.597 2°56.095 16.6144 4.5E-5 0.011303 -3.020363
2011-04-04 06:47:07 51°13.598 2°56.096 16.6378 4.5E-5 0.011302 -3.020363
2011-04-04 06:47:13 51°13.598 2°56.096 16.6409 4.5E-5 0.011302 -3.020363
2011-04-04 06:47:17 51°13.598 2°56.096 16.6467 4.5E-5 0.011302 -3.020363
2011-04-04 06:47:23 51°13.597 2°56.096 16.6669 4.5E-5 0.011302 -3.020363
2011-04-04 06:47:28 51°13.597 2°56.096 16.6711 4.5E-5 0.011301 -3.020363
2011-04-04 06:47:34 51°13.597 2°56.095 16.6031 4.5E-5 0.011301 -3.020363
2011-04-04 06:47:38 51°13.597 2°56.094 16.4962 4.5E-5 0.011301 -3.020363
2011-04-04 06:47:43 51°13.597 2°56.093 16.5736 4.5E-5 0.0113 -3.020363
2011-04-04 06:47:47 51°13.597 2°56.092 16.5746 4.5E-5 0.0113 -3.020363
2011-04-04 06:47:52 51°13.598 2°56.091 16.488 4.5E-5 0.0113 -3.020363
2011-04-04 06:47:58 51°13.599 2°56.088 16.5265 4.5E-5 0.011299 -3.020363
2011-04-04 06:48:02 51°13.599 2°56.085 16.6012 4.5E-5 0.011299 -3.020363
2011-04-04 06:48:07 51°13.6 2°56.081 16.5483 4.5E-5 0.011298 -3.020363
2011-04-04 06:48:12 51°13.601 2°56.076 16.5915 4.5E-5 0.011298 -3.020363
2011-04-04 06:48:18 51°13.603 2°56.069 16.589 4.5E-5 0.011298 -3.020363
2011-04-04 06:48:23 51°13.605 2°56.063 16.5443 4.5E-5 0.011298 -3.020363
2011-04-04 06:48:28 51°13.607 2°56.057 16.6062 4.5E-5 0.011297 -3.020363
2011-04-04 06:48:33 51°13.609 2°56.05 16.6128 4.5E-5 0.011297 -3.020363
2011-04-04 06:48:38 51°13.611 2°56.044 16.5843 4.5E-5 0.011297 -3.020363
2011-04-04 06:48:43 51°13.613 2°56.037 16.6362 4.5E-5 0.011296 -3.020363
2011-04-04 06:48:48 51°13.616 2°56.03 16.6443 4.5E-5 0.011296 -3.020363
2011-04-04 06:48:53 51°13.618 2°56.022 16.6507 4.5E-5 0.011296 -3.020363
2011-04-04 06:48:58 51°13.62 2°56.015 16.6334 4.5E-5 0.011295 -3.020363
2011-04-04 06:49:03 51°13.623 2°56.007 16.6103 4.5E-5 0.011295 -3.020363
2011-04-04 06:49:08 51°13.625 2°55.999 16.6048 4.5E-5 0.011295 -3.020363
2011-04-04 06:49:13 51°13.628 2°55.991 16.6155 4.5E-5 0.011295 -3.020363
2011-04-04 06:49:18 51°13.631 2°55.982 16.6236 4.5E-5 0.011295 -3.020363
2011-04-04 06:49:23 51°13.634 2°55.974 16.6221 4.5E-5 0.011294 -3.020363
2011-04-04 06:49:28 51°13.637 2°55.965 16.6272 4.5E-5 0.011293 -3.020363
2011-04-04 06:49:34 51°13.641 2°55.954 16.6373 4.5E-5 0.011293 -3.020363
2011-04-04 06:49:38 51°13.643 2°55.946 16.6475 4.5E-5 0.011293 -3.020363
2011-04-04 06:49:42 51°13.646 2°55.939 16.6432 4.5E-5 0.011292 -3.020363
2011-04-04 06:49:48 51°13.649 2°55.928 16.6435 4.5E-5 0.011292 -3.020363
2011-04-04 06:49:53 51°13.653 2°55.918 16.6587 4.5E-5 0.011292 -3.020363
2011-04-04 06:49:58 51°13.656 2°55.908 16.675 4.5E-5 0.011292 -3.020363
2011-04-04 06:50:03 51°13.659 2°55.899 16.6808 4.5E-5 0.011291 -3.020363
2011-04-04 06:50:08 51°13.661 2°55.889 16.6696 4.5E-5 0.011291 -3.020363
2011-04-04 06:50:13 51°13.665 2°55.88 16.6668 4.5E-5 0.01129 -3.020363
2011-04-04 06:50:18 51°13.667 2°55.87 16.6695 4.5E-5 0.01129 -3.020363
2011-04-04 06:50:23 51°13.67 2°55.86 16.6692 4.5E-5 0.01129 -3.020363
2011-04-04 06:50:28 51°13.673 2°55.85 16.6699 4.5E-5 0.01129 -3.020363
2011-04-04 06:50:32 51°13.675 2°55.842 16.6676 4.5E-5 0.011289 -3.020363
2011-04-04 06:50:38 51°13.677 2°55.83 16.6696 4.5E-5 0.011288 -3.020363
2011-04-04 06:50:43 51°13.679 2°55.82 16.6669 4.5E-5 0.011288 -3.020363
2011-04-04 06:50:48 51°13.681 2°55.809 16.6671 4.5E-5 0.011288 -3.020363
2011-04-04 06:50:53 51°13.683 2°55.799 16.6948 4.5E-5 0.011287 -3.020363
2011-04-04 06:50:58 51°13.685 2°55.789 16.6862 4.5E-5 0.011287 -3.020363
2011-04-04 06:51:03 51°13.686 2°55.78 16.6705 4.5E-5 0.011286 -3.020363
2011-04-04 06:51:08 51°13.688 2°55.772 16.6695 4.5E-5 0.011286 -3.020363
2011-04-04 06:51:13 51°13.689 2°55.765 16.6848 4.5E-5 0.011285 -3.020363
2011-04-04 06:51:18 51°13.691 2°55.758 16.6781 4.5E-5 0.011285 -3.020363
2011-04-04 06:51:23 51°13.692 2°55.753 16.7128 4.5E-5 0.011285 -3.020363
2011-04-04 06:51:28 51°13.693 2°55.748 16.7194 4.5E-5 0.011285 -3.020363
2011-04-04 06:51:33 51°13.694 2°55.744 16.7192 4.5E-5 0.011284 -3.020363
2011-04-04 06:51:38 51°13.694 2°55.741 16.6789 4.5E-5 0.011284 -3.020363
2011-04-04 06:51:42 51°13.695 2°55.74 16.682 4.5E-5 0.011283 -3.020363
2011-04-04 06:51:48 51°13.695 2°55.739 16.7156 4.5E-5 0.011283 -3.020363
2011-04-04 06:51:52 51°13.696 2°55.738 16.7312 4.5E-5 0.011282 -3.020363
2011-04-04 06:51:58 51°13.697 2°55.739 16.7326 4.5E-5 0.011282 -3.020363
2011-04-04 06:52:02 51°13.698 2°55.74 16.7314 4.5E-5 0.011281 -3.020363
2011-04-04 06:52:07 51°13.699 2°55.742 16.7382 4.5E-5 0.011281 -3.020363
2011-04-04 06:52:12 51°13.7 2°55.744 16.7579 4.5E-5 0.011281 -3.020363
2011-04-04 06:52:17 51°13.701 2°55.747 16.7654 4.5E-5 0.011281 -3.020363
2011-04-04 06:52:22 51°13.703 2°55.749 16.7697 4.5E-5 0.01128 -3.020363
2011-04-04 06:52:27 51°13.706 2°55.752 16.7726 4.5E-5 0.01128 -3.020363
2011-04-04 06:52:32 51°13.708 2°55.755 16.692 4.5E-5 0.01128 -3.020363
2011-04-04 06:52:37 51°13.711 2°55.757 16.5493 4.5E-5 0.011279 -3.020363
2011-04-04 06:52:42 51°13.713 2°55.758 16.5273 4.5E-5 0.011278 -3.020363
2011-04-04 06:52:46 51°13.714 2°55.759 16.5467 4.5E-5 0.011278 -3.020363
2011-04-04 06:52:51 51°13.715 2°55.759 16.6198 4.5E-5 0.011278 -3.020363
2011-04-04 06:52:57 51°13.715 2°55.76 16.5034 4.5E-5 0.011277 -3.020363
2011-04-04 06:53:02 51°13.715 2°55.76 16.6298 4.5E-5 0.011277 -3.020363
2011-04-04 06:53:07 51°13.714 2°55.76 16.6305 4.5E-5 0.011276 -3.020363
2011-04-04 06:53:12 51°13.712 2°55.759 16.6279 4.5E-5 0.011276 -3.020363
2011-04-04 06:53:17 51°13.71 2°55.759 16.61 4.5E-5 0.011276 -3.020363
2011-04-04 06:53:22 51°13.707 2°55.758 16.643 4.5E-5 0.011276 -3.020363
2011-04-04 06:53:27 51°13.705 2°55.758 16.6871 4.5E-5 0.011275 -3.020363
2011-04-04 06:53:33 51°13.704 2°55.76 16.6583 4.5E-5 0.011275 -3.020363
2011-04-04 06:53:38 51°13.703 2°55.759 16.6931 4.5E-5 0.011275 -3.020363
2011-04-04 06:53:43 51°13.703 2°55.759 16.6968 4.5E-5 0.011275 -3.020363
2011-04-04 06:53:48 51°13.704 2°55.759 16.7159 4.5E-5 0.011275 -3.020363
2011-04-04 06:53:53 51°13.706 2°55.758 16.7404 4.5E-5 0.011275 -3.020363
2011-04-04 06:53:57 51°13.707 2°55.758 16.7596 4.5E-5 0.011274 -3.020363
2011-04-04 06:54:02 51°13.71 2°55.756 16.7791 4.5E-5 0.011275 -3.020363
2011-04-04 06:54:07 51°13.714 2°55.753 16.7716 4.5E-5 0.011275 -3.020363
2011-04-04 06:54:13 51°13.719 2°55.748 16.7324 4.5E-5 0.011275 -3.020363
2011-04-04 06:54:18 51°13.724 2°55.744 16.6899 4.5E-5 0.011275 -3.020363
2011-04-04 06:54:22 51°13.728 2°55.739 16.6684 4.5E-5 0.011274 -3.020363
2011-04-04 06:54:27 51°13.734 2°55.733 16.6145 4.5E-5 0.011274 -3.020363
2011-04-04 06:54:32 51°13.74 2°55.726 16.567 4.5E-5 0.011273 -3.020363
2011-04-04 06:54:38 51°13.749 2°55.717 16.5114 4.5E-5 0.011273 -3.020363
2011-04-04 06:54:43 51°13.756 2°55.708 16.505 4.5E-5 0.011272 -3.020363
2011-04-04 06:54:48 51°13.764 2°55.7 16.4675 4.5E-5 0.011272 -3.020363
2011-04-04 06:54:52 51°13.77 2°55.694 16.4673 4.5E-5 0.011272 -3.020363
2011-04-04 06:54:57 51°13.778 2°55.685 16.4664 4.5E-5 0.011271 -3.020363
2011-04-04 06:55:02 51°13.787 2°55.677 16.4623 4.5E-5 0.011271 -3.020363
2011-04-04 06:55:07 51°13.796 2°55.668 16.445 4.5E-5 0.011271 -3.020363
2011-04-04 06:55:12 51°13.805 2°55.659 16.4456 4.5E-5 0.01127 -3.020363
2011-04-04 06:55:17 51°13.814 2°55.65 16.3949 4.5E-5 0.01127 -3.020363
2011-04-04 06:55:22 51°13.824 2°55.642 16.3964 4.5E-5 0.01127 -3.020363
2011-04-04 06:55:27 51°13.834 2°55.633 16.4193 4.5E-5 0.011269 -3.020363
2011-04-04 06:55:32 51°13.844 2°55.625 16.4924 4.5E-5 0.011269 -3.020363
2011-04-04 06:55:36 51°13.852 2°55.619 16.4846 4.5E-5 0.011268 -3.020363
2011-04-04 06:55:41 51°13.862 2°55.61 16.5102 4.5E-5 0.011268 -3.020363
2011-04-04 06:55:47 51°13.875 2°55.601 16.5048 4.5E-5 0.011268 -3.020363
2011-04-04 06:55:52 51°13.885 2°55.593 16.5135 4.5E-5 0.011267 -3.020363
2011-04-04 06:55:56 51°13.893 2°55.586 16.5201 4.5E-5 0.011266 -3.020363
2011-04-04 06:56:01 51°13.904 2°55.578 16.5244 4.5E-5 0.011266 -3.020363
2011-04-04 06:56:06 51°13.915 2°55.571 16.5323 4.5E-5 0.011265 -3.020363
2011-04-04 06:56:11 51°13.925 2°55.562 16.5426 4.5E-5 0.011265 -3.020363
2011-04-04 06:56:16 51°13.936 2°55.555 16.5473 4.5E-5 0.011265 -3.020363
2011-04-04 06:56:20 51°13.945 2°55.549 16.547 4.5E-5 0.011264 -3.020363
2011-04-04 06:56:25 51°13.956 2°55.541 16.5454 4.5E-5 0.011264 -3.020363
2011-04-04 06:56:30 51°13.966 2°55.533 16.5506 4.5E-5 0.011263 -3.020363
2011-04-04 06:56:35 51°13.977 2°55.525 16.5677 4.5E-5 0.011263 -3.020363
2011-04-04 06:56:40 51°13.988 2°55.517 16.5685 4.5E-5 0.011262 -3.020363
2011-04-04 06:56:44 51°13.997 2°55.512 16.5665 4.5E-5 0.011262 -3.020363
2011-04-04 06:56:49 51°14.008 2°55.504 16.5793 4.5E-5 0.011262 -3.020363
2011-04-04 06:56:54 51°14.019 2°55.497 16.5829 4.5E-5 0.011261 -3.020363
2011-04-04 06:56:59 51°14.03 2°55.49 16.6039 4.5E-5 0.011261 -3.020363
2011-04-04 06:57:04 51°14.04 2°55.482 16.6019 4.5E-5 0.01126 -3.020363
2011-04-04 06:57:09 51°14.052 2°55.474 16.6181 4.5E-5 0.011259 -3.020363
2011-04-04 06:57:15 51°14.065 2°55.464 16.6081 4.5E-5 0.011259 -3.020363
2011-04-04 06:57:20 51°14.076 2°55.456 16.6134 4.5E-5 0.011259 -3.020363
2011-04-04 06:57:25 51°14.088 2°55.448 16.6186 4.5E-5 0.011258 -3.020363
2011-04-04 06:57:30 51°14.1 2°55.44 16.5626 4.5E-5 0.011257 -3.020363
2011-04-04 06:57:36 51°14.114 2°55.429 16.594 4.5E-5 0.011257 -3.020363
2011-04-04 06:57:41 51°14.125 2°55.42 16.6411 4.5E-5 0.011256 -3.020363
2011-04-04 06:57:47 51°14.139 2°55.409 16.6318 4.5E-5 0.011256 -3.020363
2011-04-04 06:57:52 51°14.151 2°55.4 16.649 4.5E-5 0.011256 -3.020363
2011-04-04 06:57:57 51°14.163 2°55.39 16.6715 4.5E-5 0.011255 -3.020363
2011-04-04 06:58:02 51°14.175 2°55.38 16.66 4.5E-5 0.011254 -3.020363
2011-04-04 06:58:07 51°14.186 2°55.369 16.5624 4.5E-5 0.011254 -3.020363
2011-04-04 06:58:12 51°14.198 2°55.358 16.5311 4.5E-5 0.011253 -3.020363
2011-04-04 06:58:17 51°14.209 2°55.346 16.5963 4.5E-5 0.011253 -3.020363
2011-04-04 06:58:22 51°14.221 2°55.335 16.5886 4.5E-5 0.011252 -3.020363
2011-04-04 06:58:27 51°14.233 2°55.323 16.5991 4.5E-5 0.011252 -3.020363
2011-04-04 06:58:32 51°14.244 2°55.311 16.5731 4.5E-5 0.011251 -3.020363
2011-04-04 06:58:37 51°14.256 2°55.299 16.5327 4.5E-5 0.01125 -3.020363
2011-04-04 06:58:42 51°14.268 2°55.287 16.52 4.5E-5 0.01125 -3.020363
2011-04-04 06:58:48 51°14.282 2°55.272 16.5844 4.5E-5 0.01125 -3.020363
2011-04-04 06:58:52 51°14.292 2°55.262 16.5212 4.5E-5 0.011249 -3.020363
2011-04-04 06:58:58 51°14.306 2°55.247 16.428 4.5E-5 0.011248 -3.020363
2011-04-04 06:59:03 51°14.319 2°55.235 16.551 4.5E-5 0.011247 -3.020363
2011-04-04 06:59:08 51°14.331 2°55.222 16.5612 4.5E-5 0.011247 -3.020363
2011-04-04 06:59:12 51°14.341 2°55.212 16.647 4.5E-5 0.011246 -3.020363
2011-04-04 06:59:17 51°14.354 2°55.2 16.6655 4.5E-5 0.011246 -3.020363
2011-04-04 06:59:22 51°14.367 2°55.187 16.609 4.5E-5 0.011245 -3.020363
2011-04-04 06:59:27 51°14.379 2°55.173 16.5055 4.5E-5 0.011245 -3.020363
2011-04-04 06:59:32 51°14.392 2°55.16 16.4424 4.5E-5 0.011244 -3.020363
2011-04-04 06:59:36 51°14.403 2°55.15 16.5493 4.5E-5 0.011243 -3.020363
2011-04-04 06:59:41 51°14.416 2°55.137 16.6163 4.5E-5 0.011242 -3.020363
2011-04-04 06:59:46 51°14.43 2°55.124 16.6525 4.5E-5 0.011242 -3.020363
2011-04-04 06:59:51 51°14.443 2°55.11 16.4597 4.5E-5 0.011242 -3.020363
2011-04-04 06:59:56 51°14.455 2°55.096 16.5378 4.5E-5 0.011241 -3.020363
2011-04-04 07:00:00 51°14.466 2°55.085 16.4993 4.5E-5 0.01124 -3.020363
2011-04-04 07:00:05 51°14.479 2°55.071 16.5639 4.5E-5 0.011239 -3.020363
2011-04-04 07:00:10 51°14.493 2°55.057 16.6426 4.5E-5 0.011239 -3.020363
2011-04-04 07:00:15 51°14.506 2°55.044 16.4746 4.5E-5 0.011239 -3.020363
2011-04-04 07:00:20 51°14.519 2°55.029 16.637 4.5E-5 0.011238 -3.020363
2011-04-04 07:00:24 51°14.53 2°55.017 16.6314 4.5E-5 0.011237 -3.020363
2011-04-04 07:00:29 51°14.542 2°55.001 16.5154 4.5E-5 0.011236 -3.020363
2011-04-04 07:00:34 51°14.555 2°54.984 16.6184 4.5E-5 0.011236 -3.020363
2011-04-04 07:00:39 51°14.568 2°54.967 16.4483 4.5E-5 0.011235 -3.020363
2011-04-04 07:00:44 51°14.58 2°54.949 16.4445 4.5E-5 0.011235 -3.020363
2011-04-04 07:00:49 51°14.593 2°54.932 16.4943 4.5E-5 0.011235 -3.020363
2011-04-04 07:00:54 51°14.606 2°54.915 16.538 4.5E-5 0.011234 -3.020363
2011-04-04 07:00:59 51°14.619 2°54.899 16.5656 4.5E-5 0.011233 -3.020363
2011-04-04 07:01:04 51°14.632 2°54.883 16.4796 4.5E-5 0.011233 -3.020363
2011-04-04 07:01:09 51°14.645 2°54.866 16.614 4.5E-5 0.011232 -3.020363
2011-04-04 07:01:14 51°14.659 2°54.85 16.5106 4.5E-5 0.011232 -3.020363
2011-04-04 07:01:19 51°14.672 2°54.833 16.5736 4.5E-5 0.011231 -3.020363
2011-04-04 07:01:24 51°14.685 2°54.816 16.3661 4.5E-5 0.01123 -3.020363
2011-04-04 07:01:29 51°14.699 2°54.799 16.4957 4.5E-5 0.011229 -3.020363
2011-04-04 07:01:34 51°14.713 2°54.783 16.5409 4.5E-5 0.011229 -3.020363
2011-04-04 07:01:39 51°14.727 2°54.766 16.4477 4.5E-5 0.011228 -3.020363
2011-04-04 07:01:44 51°14.741 2°54.75 16.4837 4.5E-5 0.011228 -3.020363
2011-04-04 07:01:49 51°14.755 2°54.733 16.5169 4.5E-5 0.011226 -3.020363
2011-04-04 07:01:54 51°14.769 2°54.717 16.4001 4.5E-5 0.011225 -3.020363
2011-04-04 07:01:59 51°14.783 2°54.7 16.5424 4.5E-5 0.011224 -3.020363
2011-04-04 07:02:04 51°14.798 2°54.684 16.5245 4.5E-5 0.011223 -3.020363
2011-04-04 07:02:09 51°14.812 2°54.668 16.5061 4.5E-5 0.011222 -3.020363
2011-04-04 07:02:14 51°14.826 2°54.651 16.4682 4.5E-5 0.011222 -3.020363
2011-04-04 07:02:19 51°14.841 2°54.634 16.491 4.5E-5 0.011221 -3.020363
2011-04-04 07:02:24 51°14.855 2°54.617 16.4746 4.5E-5 0.01122 -3.020363
2011-04-04 07:02:29 51°14.87 2°54.601 16.4727 4.5E-5 0.011219 -3.020363
2011-04-04 07:02:34 51°14.885 2°54.584 16.5359 4.5E-5 0.011218 -3.020363
2011-04-04 07:02:39 51°14.899 2°54.568 16.5007 4.5E-5 0.011217 -3.020363
2011-04-04 07:02:44 51°14.914 2°54.551 16.4367 4.5E-5 0.011217 -3.020363
2011-04-04 07:02:49 51°14.928 2°54.535 16.4877 4.5E-5 0.011215 -3.020363
2011-04-04 07:02:54 51°14.943 2°54.518 16.4852 4.5E-5 0.011214 -3.020363
2011-04-04 07:02:59 51°14.957 2°54.502 16.4381 4.5E-5 0.011213 -3.020363
2011-04-04 07:03:04 51°14.971 2°54.485 16.4765 4.5E-5 0.011212 -3.020363
2011-04-04 07:03:09 51°14.985 2°54.469 16.5153 4.5E-5 0.011211 -3.020363
2011-04-04 07:03:14 51°15 2°54.452 16.5158 4.5E-5 0.011211 -3.020363
2011-04-04 07:03:19 51°15.014 2°54.436 16.4296 4.5E-5 0.01121 -3.020363
2011-04-04 07:03:24 51°15.029 2°54.42 16.5109 4.5E-5 0.011209 -3.020363
2011-04-04 07:03:29 51°15.043 2°54.403 16.5052 4.5E-5 0.011207 -3.020363
2011-04-04 07:03:34 51°15.057 2°54.387 16.5074 4.5E-5 0.011206 -3.020363
2011-04-04 07:03:39 51°15.072 2°54.371 16.5024 4.5E-5 0.011205 -3.020363
2011-04-04 07:03:44 51°15.086 2°54.354 16.4809 4.5E-5 0.011205 -3.020363
2011-04-04 07:03:49 51°15.1 2°54.337 16.4718 4.5E-5 0.011204 -3.020363
2011-04-04 07:03:54 51°15.114 2°54.32 16.4281 4.5E-5 0.011203 -3.020363
2011-04-04 07:03:59 51°15.128 2°54.303 16.4233 4.5E-5 0.011201 -3.020363
2011-04-04 07:04:04 51°15.142 2°54.286 16.507 4.5E-5 0.0112 -3.020363
2011-04-04 07:04:09 51°15.156 2°54.269 16.3912 4.5E-5 0.011199 -3.020363
2011-04-04 07:04:14 51°15.171 2°54.252 16.4403 4.5E-5 0.011199 -3.020363
2011-04-04 07:04:19 51°15.185 2°54.235 16.4553 4.5E-5 0.011198 -3.020363
2011-04-04 07:04:24 51°15.199 2°54.219 16.494 4.5E-5 0.011197 -3.020363
2011-04-04 07:04:29 51°15.214 2°54.203 16.5073 4.5E-5 0.011195 -3.020363
2011-04-04 07:04:34 51°15.228 2°54.185 16.5381 4.5E-5 0.011194 -3.020363
2011-04-04 07:04:39 51°15.242 2°54.168 16.3999 4.5E-5 0.011192 -3.020363
2011-04-04 07:04:44 51°15.256 2°54.151 16.4849 4.5E-5 0.011192 -3.020363
2011-04-04 07:04:49 51°15.269 2°54.132 16.4852 4.5E-5 0.011192 -3.020363
2011-04-04 07:04:54 51°15.283 2°54.114 16.4102 4.5E-5 0.01119 -3.020363
2011-04-04 07:04:59 51°15.297 2°54.096 16.396 4.5E-5 0.011188 -3.020363
2011-04-04 07:05:04 51°15.31 2°54.078 16.4092 4.5E-5 0.011187 -3.020363
2011-04-04 07:05:09 51°15.324 2°54.061 16.4666 4.5E-5 0.011186 -3.020363
2011-04-04 07:05:14 51°15.338 2°54.043 16.4414 4.5E-5 0.011186 -3.020363
2011-04-04 07:05:19 51°15.352 2°54.026 16.3576 4.5E-5 0.011185 -3.020363
2011-04-04 07:05:24 51°15.366 2°54.008 16.435 4.5E-5 0.011184 -3.020363
2011-04-04 07:05:29 51°15.38 2°53.991 16.4028 4.5E-5 0.011182 -3.020363
2011-04-04 07:05:34 51°15.395 2°53.973 16.4619 4.5E-5 0.011181 -3.020363
2011-04-04 07:05:39 51°15.409 2°53.956 16.4922 4.5E-5 0.011179 -3.020363
2011-04-04 07:05:44 51°15.423 2°53.939 16.4467 4.5E-5 0.011179 -3.020363
2011-04-04 07:05:49 51°15.437 2°53.922 16.4927 4.5E-5 0.011178 -3.020363
2011-04-04 07:05:54 51°15.451 2°53.904 16.3697 4.5E-5 0.011177 -3.020363
2011-04-04 07:05:59 51°15.465 2°53.886 16.4129 4.5E-5 0.011176 -3.020363
2011-04-04 07:06:04 51°15.479 2°53.868 16.4561 4.5E-5 0.011174 -3.020363
2011-04-04 07:06:09 51°15.493 2°53.851 16.3954 4.5E-5 0.011173 -3.020363
2011-04-04 07:06:14 51°15.507 2°53.833 16.3881 4.5E-5 0.011173 -3.020363
2011-04-04 07:06:19 51°15.522 2°53.815 16.4109 4.5E-5 0.011172 -3.020363
2011-04-04 07:06:24 51°15.536 2°53.798 16.449 4.5E-5 0.01117 -3.020363
2011-04-04 07:06:29 51°15.55 2°53.781 16.4461 4.5E-5 0.01117 -3.020363
2011-04-04 07:06:34 51°15.565 2°53.765 16.4155 4.5E-5 0.011169 -3.020363
2011-04-04 07:06:39 51°15.579 2°53.748 16.4619 4.5E-5 0.011167 -3.020363
2011-04-04 07:06:44 51°15.594 2°53.731 16.4042 4.5E-5 0.011167 -3.020363
2011-04-04 07:06:49 51°15.608 2°53.715 16.4871 4.5E-5 0.011166 -3.020363
2011-04-04 07:06:54 51°15.623 2°53.698 16.4466 4.5E-5 0.011165 -3.020363
2011-04-04 07:06:59 51°15.637 2°53.682 16.4467 4.5E-5 0.011164 -3.020363
2011-04-04 07:07:04 51°15.651 2°53.665 16.4319 4.5E-5 0.011163 -3.020363
2011-04-04 07:07:09 51°15.666 2°53.648 16.3763 4.5E-5 0.011162 -3.020363
2011-04-04 07:07:14 51°15.68 2°53.631 16.3901 4.5E-5 0.011162 -3.020363
2011-04-04 07:07:19 51°15.694 2°53.615 16.3891 4.5E-5 0.011161 -3.020363
2011-04-04 07:07:24 51°15.709 2°53.598 16.4224 4.5E-5 0.01116 -3.020363
2011-04-04 07:07:29 51°15.724 2°53.583 16.3319 4.5E-5 0.011158 -3.020363
2011-04-04 07:07:34 51°15.739 2°53.569 16.3271 4.5E-5 0.011157 -3.020363
2011-04-04 07:07:39 51°15.754 2°53.554 16.4304 4.5E-5 0.011156 -3.020363
2011-04-04 07:07:44 51°15.77 2°53.541 16.3908 4.5E-5 0.011156 -3.020363
2011-04-04 07:07:49 51°15.785 2°53.527 16.3594 4.5E-5 0.011155 -3.020363
2011-04-04 07:07:54 51°15.801 2°53.514 16.4448 4.5E-5 0.011154 -3.020363
2011-04-04 07:07:59 51°15.816 2°53.501 16.3735 4.5E-5 0.011152 -3.020363
2011-04-04 07:08:04 51°15.832 2°53.488 16.4217 4.5E-5 0.011151 -3.020363
2011-04-04 07:08:09 51°15.847 2°53.475 16.3833 4.5E-5 0.01115 -3.020363
2011-04-04 07:08:14 51°15.863 2°53.462 16.4184 4.5E-5 0.01115 -3.020363
2011-04-04 07:08:19 51°15.878 2°53.448 16.3887 4.5E-5 0.011149 -3.020363
2011-04-04 07:08:24 51°15.894 2°53.435 16.3781 4.5E-5 0.011148 -3.020363
2011-04-04 07:08:29 51°15.909 2°53.421 16.4136 4.5E-5 0.011146 -3.020363
2011-04-04 07:08:34 51°15.924 2°53.408 16.4014 4.5E-5 0.011145 -3.020363
2011-04-04 07:08:39 51°15.94 2°53.394 16.4107 4.5E-5 0.011144 -3.020363
2011-04-04 07:08:44 51°15.955 2°53.381 16.4164 4.5E-5 0.011144 -3.020363
2011-04-04 07:08:49 51°15.971 2°53.367 16.4255 4.5E-5 0.011143 -3.020363
2011-04-04 07:08:54 51°15.986 2°53.354 16.3584 4.5E-5 0.011142 -3.020363
2011-04-04 07:09:00 51°16.005 2°53.338 16.4048 4.5E-5 0.01114 -3.020363
2011-04-04 07:09:04 51°16.017 2°53.326 16.4286 4.5E-5 0.011139 -3.020363
2011-04-04 07:09:09 51°16.031 2°53.313 16.3463 4.5E-5 0.011138 -3.020363
2011-04-04 07:09:14 51°16.047 2°53.299 16.3964 4.5E-5 0.011138 -3.020363
2011-04-04 07:09:19 51°16.062 2°53.285 16.3997 4.5E-5 0.011137 -3.020363
2011-04-04 07:09:24 51°16.077 2°53.271 16.4284 4.5E-5 0.011135 -3.020363
2011-04-04 07:09:29 51°16.093 2°53.258 16.4106 4.5E-5 0.011135 -3.020363
2011-04-04 07:09:34 51°16.108 2°53.244 16.4042 4.5E-5 0.011133 -3.020363
2011-04-04 07:09:39 51°16.124 2°53.232 16.3616 4.5E-5 0.011132 -3.020363
2011-04-04 07:09:44 51°16.139 2°53.219 16.4236 4.5E-5 0.011132 -3.020363
2011-04-04 07:09:49 51°16.155 2°53.205 16.3814 4.5E-5 0.011131 -3.020363
2011-04-04 07:09:54 51°16.17 2°53.192 16.4196 4.5E-5 0.01113 -3.020363
2011-04-04 07:09:59 51°16.186 2°53.178 16.4278 4.5E-5 0.011128 -3.020363
2011-04-04 07:10:04 51°16.201 2°53.164 16.4202 4.5E-5 0.011127 -3.020363
2011-04-04 07:10:09 51°16.217 2°53.151 16.3869 4.5E-5 0.011126 -3.020363
2011-04-04 07:10:14 51°16.232 2°53.137 16.4007 4.5E-5 0.011126 -3.020363
2011-04-04 07:10:19 51°16.248 2°53.124 16.4102 4.5E-5 0.011125 -3.020363
2011-04-04 07:10:24 51°16.263 2°53.111 16.3905 4.5E-5 0.011123 -3.020363
2011-04-04 07:10:29 51°16.279 2°53.098 16.3857 4.5E-5 0.011121 -3.020363
2011-04-04 07:10:34 51°16.295 2°53.086 16.4253 4.5E-5 0.01112 -3.020363
2011-04-04 07:10:39 51°16.31 2°53.073 16.431 4.5E-5 0.011119 -3.020363
2011-04-04 07:10:44 51°16.326 2°53.061 16.3642 4.5E-5 0.011119 -3.020363
2011-04-04 07:10:49 51°16.342 2°53.049 16.4401 4.5E-5 0.011118 -3.020363
2011-04-04 07:10:54 51°16.357 2°53.036 16.4406 4.5E-5 0.011116 -3.020363
2011-04-04 07:10:59 51°16.373 2°53.023 16.4039 4.5E-5 0.011115 -3.020363
2011-04-04 07:11:04 51°16.389 2°53.011 16.3414 4.5E-5 0.011113 -3.020363
2011-04-04 07:11:09 51°16.404 2°52.998 16.3858 4.5E-5 0.011112 -3.020363
2011-04-04 07:11:14 51°16.42 2°52.985 16.3837 4.5E-5 0.011112 -3.020363
2011-04-04 07:11:19 51°16.435 2°52.972 16.3794 4.5E-5 0.011111 -3.020363
2011-04-04 07:11:24 51°16.451 2°52.96 16.381 4.5E-5 0.01111 -3.020363
2011-04-04 07:11:29 51°16.467 2°52.948 16.4106 4.5E-5 0.011108 -3.020363
2011-04-04 07:11:34 51°16.483 2°52.937 16.3845 4.5E-5 0.011107 -3.020363
2011-04-04 07:11:40 51°16.502 2°52.922 16.4124 4.5E-5 0.011105 -3.020363
2011-04-04 07:11:44 51°16.514 2°52.913 16.4202 4.5E-5 0.011105 -3.020363
2011-04-04 07:11:48 51°16.527 2°52.904 16.4272 4.5E-5 0.011104 -3.020363
2011-04-04 07:11:54 51°16.546 2°52.89 16.4159 4.5E-5 0.011102 -3.020363
2011-04-04 07:11:59 51°16.562 2°52.878 16.4048 4.5E-5 0.011101 -3.020363
2011-04-04 07:12:04 51°16.578 2°52.867 16.4166 4.5E-5 0.0111 -3.020363
2011-04-04 07:12:09 51°16.593 2°52.856 16.4158 4.5E-5 0.011099 -3.020363
2011-04-04 07:12:14 51°16.609 2°52.844 16.4104 4.5E-5 0.011099 -3.020363
2011-04-04 07:12:19 51°16.625 2°52.832 16.4264 4.5E-5 0.011097 -3.020363
2011-04-04 07:12:24 51°16.641 2°52.821 16.3904 4.5E-5 0.011096 -3.020363
2011-04-04 07:12:28 51°16.653 2°52.811 16.4404 4.5E-5 0.011094 -3.020363
2011-04-04 07:12:34 51°16.672 2°52.797 16.3957 4.5E-5 0.011093 -3.020363
2011-04-04 07:12:39 51°16.687 2°52.785 16.3918 4.5E-5 0.011092 -3.020363
2011-04-04 07:12:44 51°16.703 2°52.773 16.3643 4.5E-5 0.011092 -3.020363
2011-04-04 07:12:49 51°16.719 2°52.762 16.3604 4.5E-5 0.011091 -3.020363
2011-04-04 07:12:54 51°16.734 2°52.75 16.3978 4.5E-5 0.01109 -3.020363
2011-04-04 07:13:00 51°16.753 2°52.737 16.4085 4.5E-5 0.011089 -3.020363
2011-04-04 07:13:04 51°16.765 2°52.729 16.3836 4.5E-5 0.011088 -3.020363
2011-04-04 07:13:09 51°16.781 2°52.719 16.3424 4.5E-5 0.011086 -3.020363
2011-04-04 07:13:14 51°16.797 2°52.71 16.4158 4.5E-5 0.011086 -3.020363
2011-04-04 07:13:20 51°16.816 2°52.7 16.4248 4.5E-5 0.011085 -3.020363
2011-04-04 07:13:24 51°16.828 2°52.693 16.3781 4.5E-5 0.011083 -3.020363
2011-04-04 07:13:28 51°16.841 2°52.687 16.3748 4.5E-5 0.011082 -3.020363
2011-04-04 07:13:34 51°16.861 2°52.68 16.4046 4.5E-5 0.011081 -3.020363
2011-04-04 07:13:39 51°16.877 2°52.674 16.3667 4.5E-5 0.011079 -3.020363
2011-04-04 07:13:44 51°16.894 2°52.67 16.3665 4.5E-5 0.011079 -3.020363
2011-04-04 07:13:49 51°16.91 2°52.664 16.4372 4.5E-5 0.011078 -3.020363
2011-04-04 07:13:54 51°16.926 2°52.659 16.4211 4.5E-5 0.011077 -3.020363
2011-04-04 07:14:00 51°16.946 2°52.651 16.4415 4.5E-5 0.011075 -3.020363
2011-04-04 07:14:04 51°16.959 2°52.646 16.4049 4.5E-5 0.011074 -3.020363
2011-04-04 07:14:08 51°16.972 2°52.641 16.4076 4.5E-5 0.011073 -3.020363
2011-04-04 07:14:14 51°16.992 2°52.634 16.3764 4.5E-5 0.011073 -3.020363
2011-04-04 07:14:19 51°17.009 2°52.627 16.3475 4.5E-5 0.011072 -3.020363
2011-04-04 07:14:24 51°17.025 2°52.623 16.3875 4.5E-5 0.011071 -3.020363
2011-04-04 07:14:29 51°17.042 2°52.619 16.4084 4.5E-5 0.01107 -3.020363
2011-04-04 07:14:34 51°17.059 2°52.616 16.3875 4.5E-5 0.011069 -3.020363
2011-04-04 07:14:39 51°17.075 2°52.615 16.4119 4.5E-5 0.011067 -3.020363
2011-04-04 07:14:44 51°17.092 2°52.614 16.4242 4.5E-5 0.011067 -3.020363
2011-04-04 07:14:48 51°17.105 2°52.613 16.4603 4.5E-5 0.011066 -3.020363
2011-04-04 07:14:54 51°17.125 2°52.612 16.4472 4.5E-5 0.011064 -3.020363
2011-04-04 07:14:59 51°17.142 2°52.611 16.4411 4.5E-5 0.011063 -3.020363
2011-04-04 07:15:04 51°17.158 2°52.61 16.4329 4.5E-5 0.011062 -3.020363
2011-04-04 07:15:09 51°17.175 2°52.609 16.4227 4.5E-5 0.011061 -3.020363
2011-04-04 07:15:14 51°17.192 2°52.607 16.4341 4.5E-5 0.011061 -3.020363
2011-04-04 07:15:20 51°17.212 2°52.604 16.4532 4.5E-5 0.011059 -3.020363
2011-04-04 07:15:24 51°17.225 2°52.602 16.4331 4.5E-5 0.011058 -3.020363
2011-04-04 07:15:28 51°17.239 2°52.6 16.4355 4.5E-5 0.011057 -3.020363
2011-04-04 07:15:34 51°17.259 2°52.596 16.4303 4.5E-5 0.011056 -3.020363
2011-04-04 07:15:39 51°17.275 2°52.592 16.3996 4.5E-5 0.011055 -3.020363
2011-04-04 07:15:44 51°17.292 2°52.589 16.36 4.5E-5 0.011055 -3.020363
2011-04-04 07:15:49 51°17.309 2°52.586 16.4184 4.5E-5 0.011053 -3.020363
2011-04-04 07:15:54 51°17.326 2°52.583 16.4327 4.5E-5 0.011052 -3.020363
2011-04-04 07:16:00 51°17.346 2°52.58 16.4394 4.5E-5 0.011051 -3.020363
2011-04-04 07:16:04 51°17.359 2°52.578 16.3794 4.5E-5 0.01105 -3.020363
2011-04-04 07:16:09 51°17.376 2°52.575 16.4017 4.5E-5 0.011049 -3.020363
2011-04-04 07:16:14 51°17.393 2°52.573 16.4261 4.5E-5 0.011049 -3.020363
2011-04-04 07:16:19 51°17.41 2°52.571 16.4024 4.5E-5 0.011048 -3.020363
2011-04-04 07:16:24 51°17.427 2°52.569 16.3611 4.5E-5 0.011047 -3.020363
2011-04-04 07:16:29 51°17.444 2°52.568 16.4485 4.5E-5 0.011045 -3.020363
2011-04-04 07:16:34 51°17.46 2°52.567 16.4653 4.5E-5 0.011045 -3.020363
2011-04-04 07:16:39 51°17.477 2°52.566 16.4266 4.5E-5 0.011043 -3.020363
2011-04-04 07:16:44 51°17.494 2°52.565 16.4254 4.5E-5 0.011043 -3.020363
2011-04-04 07:16:49 51°17.511 2°52.562 16.4652 4.5E-5 0.011042 -3.020363
2011-04-04 07:16:54 51°17.527 2°52.561 16.4131 4.5E-5 0.011041 -3.020363
2011-04-04 07:16:59 51°17.544 2°52.558 16.4495 4.5E-5 0.011039 -3.020363
2011-04-04 07:17:04 51°17.561 2°52.555 16.4351 4.5E-5 0.011039 -3.020363
2011-04-04 07:17:08 51°17.574 2°52.553 16.3862 4.5E-5 0.011037 -3.020363
2011-04-04 07:17:14 51°17.594 2°52.549 16.4595 4.5E-5 0.011037 -3.020363
2011-04-04 07:17:19 51°17.611 2°52.546 16.4382 4.5E-5 0.011036 -3.020363
2011-04-04 07:17:24 51°17.628 2°52.543 16.4264 4.5E-5 0.011035 -3.020363
2011-04-04 07:17:29 51°17.644 2°52.54 16.3972 4.5E-5 0.011035 -3.020363
2011-04-04 07:17:34 51°17.661 2°52.539 16.4325 4.5E-5 0.011033 -3.020363
2011-04-04 07:17:40 51°17.681 2°52.536 16.3916 4.5E-5 0.011032 -3.020363
2011-04-04 07:17:44 51°17.694 2°52.536 16.3568 4.5E-5 0.011032 -3.020363
2011-04-04 07:17:48 51°17.708 2°52.535 16.3724 4.5E-5 0.011031 -3.020363
2011-04-04 07:17:55 51°17.731 2°52.538 16.3919 4.5E-5 0.011031 -3.020363
2011-04-04 07:17:59 51°17.744 2°52.54 16.4385 4.5E-5 0.011029 -3.020363
2011-04-04 07:18:04 51°17.76 2°52.545 16.4092 4.5E-5 0.011028 -3.020363
2011-04-04 07:18:09 51°17.776 2°52.55 16.4364 4.5E-5 0.011027 -3.020363
2011-04-04 07:18:14 51°17.792 2°52.556 16.4047 4.5E-5 0.011027 -3.020363
2011-04-04 07:18:20 51°17.811 2°52.564 16.4344 4.5E-5 0.011026 -3.020363
2011-04-04 07:18:24 51°17.823 2°52.571 16.42 4.5E-5 0.011024 -3.020363
2011-04-04 07:18:28 51°17.836 2°52.577 16.4482 4.5E-5 0.011023 -3.020363
2011-04-04 07:18:34 51°17.855 2°52.587 16.4487 4.5E-5 0.011022 -3.020363
2011-04-04 07:18:39 51°17.87 2°52.596 16.4466 4.5E-5 0.011021 -3.020363
2011-04-04 07:18:44 51°17.886 2°52.605 16.4501 4.5E-5 0.011021 -3.020363
2011-04-04 07:18:49 51°17.901 2°52.613 16.4461 4.5E-5 0.01102 -3.020363
2011-04-04 07:18:54 51°17.916 2°52.622 16.4544 4.5E-5 0.011018 -3.020363
2011-04-04 07:18:59 51°17.932 2°52.63 16.4732 4.5E-5 0.011017 -3.020363
2011-04-04 07:19:04 51°17.947 2°52.638 16.4713 4.5E-5 0.011016 -3.020363
2011-04-04 07:19:08 51°17.96 2°52.645 16.4478 4.5E-5 0.011015 -3.020363
2011-04-04 07:19:14 51°17.979 2°52.654 16.4925 4.5E-5 0.011015 -3.020363
2011-04-04 07:19:19 51°17.994 2°52.662 16.4639 4.5E-5 0.011014 -3.020363
2011-04-04 07:19:24 51°18.01 2°52.669 16.432 4.5E-5 0.011012 -3.020363
2011-04-04 07:19:29 51°18.026 2°52.676 16.4377 4.5E-5 0.011012 -3.020363
2011-04-04 07:19:34 51°18.042 2°52.684 16.3833 4.5E-5 0.011011 -3.020363
2011-04-04 07:19:40 51°18.06 2°52.696 16.424 4.5E-5 0.01101 -3.020363
2011-04-04 07:19:44 51°18.072 2°52.704 16.3756 4.5E-5 0.01101 -3.020363
2011-04-04 07:19:48 51°18.084 2°52.713 16.3878 4.5E-5 0.011009 -3.020363
2011-04-04 07:19:54 51°18.101 2°52.727 16.4077 4.5E-5 0.011008 -3.020363
2011-04-04 07:19:59 51°18.115 2°52.74 16.4404 4.5E-5 0.011007 -3.020363
2011-04-04 07:20:04 51°18.129 2°52.754 16.4687 4.5E-5 0.011006 -3.020363
2011-04-04 07:20:09 51°18.143 2°52.767 16.4694 4.5E-5 0.011004 -3.020363
2011-04-04 07:20:14 51°18.157 2°52.781 16.4772 4.5E-5 0.011004 -3.020363
2011-04-04 07:20:20 51°18.174 2°52.797 16.4906 4.5E-5 0.011003 -3.020363
2011-04-04 07:20:24 51°18.185 2°52.808 16.4505 4.5E-5 0.011002 -3.020363
2011-04-04 07:20:28 51°18.197 2°52.817 16.4897 4.5E-5 0.011001 -3.020363
2011-04-04 07:20:34 51°18.214 2°52.832 16.4672 4.5E-5 0.011 -3.020363
2011-04-04 07:20:39 51°18.228 2°52.844 16.4682 4.5E-5 0.010999 -3.020363
2011-04-04 07:20:44 51°18.243 2°52.856 16.4605 4.5E-5 0.010999 -3.020363
2011-04-04 07:20:49 51°18.258 2°52.868 16.4402 4.5E-5 0.010998 -3.020363
2011-04-04 07:20:54 51°18.273 2°52.878 16.4878 4.5E-5 0.010998 -3.020363
2011-04-04 07:20:59 51°18.288 2°52.889 16.4867 4.5E-5 0.010997 -3.020363
2011-04-04 07:21:04 51°18.303 2°52.898 16.4842 4.5E-5 0.010996 -3.020363
2011-04-04 07:21:08 51°18.315 2°52.906 16.4603 4.5E-5 0.010995 -3.020363
2011-04-04 07:21:14 51°18.333 2°52.917 16.4405 4.5E-5 0.010995 -3.020363
2011-04-04 07:21:19 51°18.349 2°52.927 16.4785 4.5E-5 0.010994 -3.020363
2011-04-04 07:21:24 51°18.364 2°52.936 16.4635 4.5E-5 0.010993 -3.020363
2011-04-04 07:21:29 51°18.38 2°52.945 16.4794 4.5E-5 0.010992 -3.020363
2011-04-04 07:21:34 51°18.395 2°52.955 16.4875 4.5E-5 0.010991 -3.020363
2011-04-04 07:21:39 51°18.41 2°52.963 16.4634 4.5E-5 0.010991 -3.020363
2011-04-04 07:21:44 51°18.426 2°52.972 16.4304 4.5E-5 0.010991 -3.020363
2011-04-04 07:21:48 51°18.438 2°52.978 16.4636 4.5E-5 0.01099 -3.020363
2011-04-04 07:21:54 51°18.457 2°52.989 16.4283 4.5E-5 0.010989 -3.020363
2011-04-04 07:21:59 51°18.472 2°52.998 16.4763 4.5E-5 0.010988 -3.020363
2011-04-04 07:22:04 51°18.487 2°53.008 16.4512 4.5E-5 0.010988 -3.020363
2011-04-04 07:22:09 51°18.502 2°53.018 16.461 4.5E-5 0.010987 -3.020363
2011-04-04 07:22:14 51°18.518 2°53.027 16.4908 4.5E-5 0.010987 -3.020363
2011-04-04 07:22:20 51°18.536 2°53.039 16.4984 4.5E-5 0.010986 -3.020363
2011-04-04 07:22:24 51°18.548 2°53.046 16.4592 4.5E-5 0.010985 -3.020363
2011-04-04 07:22:29 51°18.564 2°53.054 16.4613 4.5E-5 0.010984 -3.020363
2011-04-04 07:22:34 51°18.579 2°53.062 16.4543 4.5E-5 0.010983 -3.020363
2011-04-04 07:22:40 51°18.597 2°53.072 16.4859 4.5E-5 0.010983 -3.020363
2011-04-04 07:22:44 51°18.61 2°53.079 16.4732 4.5E-5 0.010983 -3.020363
2011-04-04 07:22:48 51°18.622 2°53.085 16.5036 4.5E-5 0.010982 -3.020363
2011-04-04 07:22:54 51°18.64 2°53.096 16.4958 4.5E-5 0.010981 -3.020363
2011-04-04 07:22:59 51°18.656 2°53.104 16.498 4.5E-5 0.01098 -3.020363
2011-04-04 07:23:04 51°18.672 2°53.112 16.491 4.5E-5 0.010979 -3.020363
2011-04-04 07:23:09 51°18.687 2°53.12 16.5159 4.5E-5 0.010979 -3.020363
2011-04-04 07:23:14 51°18.703 2°53.127 16.4839 4.5E-5 0.010979 -3.020363
2011-04-04 07:23:19 51°18.719 2°53.135 16.4626 4.5E-5 0.010978 -3.020363
2011-04-04 07:23:24 51°18.734 2°53.143 16.4904 4.5E-5 0.010977 -3.020363
2011-04-04 07:23:28 51°18.747 2°53.149 16.4924 4.5E-5 0.010977 -3.020363
2011-04-04 07:23:34 51°18.766 2°53.158 16.4903 4.5E-5 0.010976 -3.020363
2011-04-04 07:23:39 51°18.782 2°53.165 16.5081 4.5E-5 0.010975 -3.020363
2011-04-04 07:23:44 51°18.797 2°53.173 16.4547 4.5E-5 0.010975 -3.020363
2011-04-04 07:23:49 51°18.813 2°53.18 16.4914 4.5E-5 0.010974 -3.020363
2011-04-04 07:23:54 51°18.829 2°53.188 16.5024 4.5E-5 0.010973 -3.020363
2011-04-04 07:24:00 51°18.847 2°53.198 16.504 4.5E-5 0.010973 -3.020363
2011-04-04 07:24:04 51°18.86 2°53.204 16.5228 4.5E-5 0.010972 -3.020363
2011-04-04 07:24:08 51°18.873 2°53.21 16.4753 4.5E-5 0.010971 -3.020363
2011-04-04 07:24:14 51°18.891 2°53.219 16.4709 4.5E-5 0.010971 -3.020363
2011-04-04 07:24:19 51°18.907 2°53.226 16.4966 4.5E-5 0.01097 -3.020363
2011-04-04 07:24:24 51°18.923 2°53.234 16.4601 4.5E-5 0.01097 -3.020363
2011-04-04 07:24:29 51°18.938 2°53.241 16.4751 4.5E-5 0.010969 -3.020363
2011-04-04 07:24:34 51°18.954 2°53.248 16.4719 4.5E-5 0.010968 -3.020363
2011-04-04 07:24:40 51°18.972 2°53.256 16.4633 4.5E-5 0.010968 -3.020363
2011-04-04 07:24:44 51°18.985 2°53.263 16.4566 4.5E-5 0.010968 -3.020363
2011-04-04 07:24:48 51°18.997 2°53.269 16.3232 4.5E-5 0.010967 -3.020363
2011-04-04 07:24:54 51°19.016 2°53.278 16.368 4.5E-5 0.010971 -3.020363
2011-04-04 07:24:59 51°19.031 2°53.286 16.4305 4.5E-5 0.010977 -3.020363
2011-04-04 07:25:04 51°19.046 2°53.294 16.3877 4.5E-5 0.010984 -3.020363
2011-04-04 07:25:09 51°19.062 2°53.301 16.3853 4.5E-5 0.010983 -3.020363
2011-04-04 07:25:14 51°19.077 2°53.309 16.3893 4.5E-5 0.010983 -3.020363
2011-04-04 07:25:19 51°19.093 2°53.316 16.3936 4.5E-5 0.010985 -3.020363
2011-04-04 07:25:24 51°19.109 2°53.324 16.3979 4.5E-5 0.010984 -3.020363
2011-04-04 07:25:28 51°19.121 2°53.328 16.4019 4.5E-5 0.010982 -3.020363
2011-04-04 07:25:34 51°19.14 2°53.337 16.403 4.5E-5 0.010981 -3.020363
2011-04-04 07:25:39 51°19.156 2°53.343 16.4048 4.5E-5 0.010979 -3.020363
2011-04-04 07:25:44 51°19.171 2°53.35 16.4076 4.5E-5 0.010979 -3.020363
2011-04-04 07:25:49 51°19.187 2°53.357 16.4109 0.00097 0.013402 -3.020363
2011-04-04 07:25:54 51°19.203 2°53.364 16.4111 4.5E-5 0.010977 -3.020363
2011-04-04 07:25:59 51°19.218 2°53.37 16.415 4.5E-5 0.010977 -3.020363
2011-04-04 07:26:04 51°19.234 2°53.377 16.4164 4.5E-5 0.010976 -3.020363
2011-04-04 07:26:08 51°19.246 2°53.384 16.4163 4.5E-5 0.010975 -3.020363
2011-04-04 07:26:14 51°19.265 2°53.393 16.4205 4.5E-5 0.010975 -3.020363
2011-04-04 07:26:19 51°19.28 2°53.401 16.4198 4.5E-5 0.010974 -3.020363
2011-04-04 07:26:24 51°19.296 2°53.408 16.4247 4.5E-5 0.010973 -3.020363
2011-04-04 07:26:29 51°19.311 2°53.415 16.4265 4.5E-5 0.010972 -3.020363
2011-04-04 07:26:34 51°19.327 2°53.423 16.4302 4.5E-5 0.010971 -3.020363
2011-04-04 07:26:40 51°19.345 2°53.431 16.4182 4.5E-5 0.01097 -3.020363
2011-04-04 07:26:44 51°19.358 2°53.436 16.4251 4.5E-5 0.01097 -3.020363
2011-04-04 07:26:48 51°19.371 2°53.442 16.4213 4.5E-5 0.01097 -3.020363
2011-04-04 07:26:54 51°19.389 2°53.449 16.4275 4.5E-5 0.01097 -3.020363
2011-04-04 07:26:59 51°19.405 2°53.455 16.4327 4.5E-5 0.010969 -3.020363
2011-04-04 07:27:04 51°19.421 2°53.461 16.4329 4.5E-5 0.010968 -3.020363
2011-04-04 07:27:09 51°19.437 2°53.468 16.4361 4.5E-5 0.010968 -3.020363
2011-04-04 07:27:14 51°19.452 2°53.476 16.4369 4.5E-5 0.010968 -3.020363
2011-04-04 07:27:19 51°19.468 2°53.482 16.4418 4.5E-5 0.010967 -3.020363
2011-04-04 07:27:24 51°19.483 2°53.49 16.4429 4.5E-5 0.010966 -3.020363
2011-04-04 07:27:29 51°19.499 2°53.497 16.4472 4.5E-5 0.010964 -3.020363
2011-04-04 07:27:34 51°19.515 2°53.504 16.4428 4.5E-5 0.010963 -3.020363
2011-04-04 07:27:39 51°19.53 2°53.511 16.4442 4.5E-5 0.010962 -3.020363
2011-04-04 07:27:44 51°19.546 2°53.518 16.4368 4.5E-5 0.010962 -3.020363
2011-04-04 07:27:49 51°19.561 2°53.525 16.4449 4.5E-5 0.010962 -3.020363
2011-04-04 07:27:54 51°19.577 2°53.533 16.4482 4.5E-5 0.010961 -3.020363
2011-04-04 07:27:59 51°19.592 2°53.54 16.4551 4.5E-5 0.01096 -3.020363
2011-04-04 07:28:04 51°19.608 2°53.547 16.4572 4.5E-5 0.010959 -3.020363
2011-04-04 07:28:09 51°19.623 2°53.554 16.4589 4.5E-5 0.010957 -3.020363
2011-04-04 07:28:14 51°19.639 2°53.561 16.46 4.5E-5 0.010957 -3.020363
2011-04-04 07:28:19 51°19.655 2°53.567 16.4547 4.5E-5 0.010956 -3.020363
2011-04-04 07:28:24 51°19.67 2°53.573 16.4471 4.5E-5 0.010956 -3.020363
2011-04-04 07:28:28 51°19.683 2°53.578 16.4526 4.5E-5 0.010955 -3.020363
2011-04-04 07:28:34 51°19.701 2°53.586 16.452 4.5E-5 0.010955 -3.020363
2011-04-04 07:28:39 51°19.717 2°53.593 16.4705 4.5E-5 0.010954 -3.020363
2011-04-04 07:28:44 51°19.732 2°53.601 16.4558 4.5E-5 0.010954 -3.020363
2011-04-04 07:28:49 51°19.747 2°53.608 16.4746 4.5E-5 0.010953 -3.020363
2011-04-04 07:28:54 51°19.763 2°53.616 16.4716 4.5E-5 0.010953 -3.020363
2011-04-04 07:29:00 51°19.781 2°53.625 16.4736 4.5E-5 0.010952 -3.020363
2011-04-04 07:29:04 51°19.794 2°53.631 16.4659 4.5E-5 0.010951 -3.020363
2011-04-04 07:29:08 51°19.806 2°53.637 16.4618 4.5E-5 0.01095 -3.020363
2011-04-04 07:29:14 51°19.825 2°53.645 16.4797 4.5E-5 0.01095 -3.020363
2011-04-04 07:29:19 51°19.84 2°53.653 16.48 4.5E-5 0.01095 -3.020363
2011-04-04 07:29:24 51°19.856 2°53.66 16.5122 4.5E-5 0.010949 -3.020363
2011-04-04 07:29:29 51°19.871 2°53.668 16.4089 4.5E-5 0.010946 -3.020363
2011-04-04 07:29:34 51°19.887 2°53.675 16.4105 4.5E-5 0.010951 -3.020363
2011-04-04 07:29:39 51°19.902 2°53.683 16.4536 4.5E-5 0.010955 -3.020363
2011-04-04 07:29:44 51°19.918 2°53.69 16.3891 4.5E-5 0.010955 -3.020363
2011-04-04 07:29:48 51°19.93 2°53.696 16.4407 4.5E-5 0.010951 -3.020363
2011-04-04 07:29:54 51°19.949 2°53.704 16.385 4.5E-5 0.010946 -3.020363
2011-04-04 07:29:59 51°19.964 2°53.713 16.4013 4.5E-5 0.010942 -3.020363
2011-04-04 07:30:04 51°19.98 2°53.72 16.3861 4.5E-5 0.01094 -3.020363
2011-04-04 07:30:09 51°19.995 2°53.729 16.3987 4.5E-5 0.010936 -3.020363
2011-04-04 07:30:14 51°20.011 2°53.736 16.3913 4.5E-5 0.010936 -3.020363
2011-04-04 07:30:19 51°20.026 2°53.744 16.3997 4.5E-5 0.010934 -3.020363
2011-04-04 07:30:24 51°20.042 2°53.752 16.4079 4.5E-5 0.010932 -3.020363
2011-04-04 07:30:28 51°20.054 2°53.758 16.3824 4.5E-5 0.01093 -3.020363
2011-04-04 07:30:34 51°20.073 2°53.767 16.3715 4.5E-5 0.010928 -3.020363
2011-04-04 07:30:39 51°20.089 2°53.774 16.4019 4.5E-5 0.010926 -3.020363
2011-04-04 07:30:44 51°20.104 2°53.781 16.3836 4.5E-5 0.010926 -3.020363
2011-04-04 07:30:49 51°20.12 2°53.788 16.4046 4.5E-5 0.010925 -3.020363
2011-04-04 07:30:54 51°20.136 2°53.796 16.4284 4.5E-5 0.010923 -3.020363
2011-04-04 07:31:00 51°20.155 2°53.803 16.3962 4.5E-5 0.010921 -3.020363
2011-04-04 07:31:04 51°20.167 2°53.809 16.4004 4.5E-5 0.01092 -3.020363
2011-04-04 07:31:08 51°20.18 2°53.814 16.4414 4.5E-5 0.010919 -3.020363
2011-04-04 07:31:14 51°20.199 2°53.821 16.4026 4.5E-5 0.010919 -3.020363
2011-04-04 07:31:19 51°20.215 2°53.829 16.417 4.5E-5 0.010918 -3.020363
2011-04-04 07:31:24 51°20.23 2°53.835 16.4312 4.5E-5 0.010916 -3.020363
2011-04-04 07:31:29 51°20.246 2°53.843 16.4154 4.5E-5 0.010915 -3.020363
2011-04-04 07:31:34 51°20.262 2°53.85 16.4001 4.5E-5 0.010914 -3.020363
2011-04-04 07:31:40 51°20.28 2°53.859 16.4162 4.5E-5 0.010913 -3.020363
2011-04-04 07:31:44 51°20.293 2°53.864 16.3968 4.5E-5 0.010913 -3.020363
2011-04-04 07:31:48 51°20.306 2°53.87 16.4347 4.5E-5 0.010912 -3.020363
2011-04-04 07:31:54 51°20.325 2°53.877 16.4453 4.5E-5 0.010911 -3.020363
2011-04-04 07:31:59 51°20.34 2°53.884 16.4319 4.5E-5 0.010909 -3.020363
2011-04-04 07:32:04 51°20.356 2°53.891 16.4179 4.5E-5 0.010909 -3.020363
2011-04-04 07:32:09 51°20.372 2°53.897 16.4177 4.5E-5 0.01091 -3.020363
2011-04-04 07:32:14 51°20.387 2°53.904 16.439 4.5E-5 0.01091 -3.020363
2011-04-04 07:32:19 51°20.403 2°53.911 16.4281 4.5E-5 0.010909 -3.020363
2011-04-04 07:32:24 51°20.418 2°53.918 16.4384 4.5E-5 0.010908 -3.020363
2011-04-04 07:32:29 51°20.434 2°53.924 16.4354 4.5E-5 0.010906 -3.020363
2011-04-04 07:32:34 51°20.45 2°53.932 16.4335 4.5E-5 0.010905 -3.020363
2011-04-04 07:32:39 51°20.465 2°53.939 16.4307 4.5E-5 0.010904 -3.020363
2011-04-04 07:32:44 51°20.481 2°53.946 16.4353 4.5E-5 0.010904 -3.020363
2011-04-04 07:32:49 51°20.496 2°53.953 16.4351 4.5E-5 0.010903 -3.020363
2011-04-04 07:32:54 51°20.512 2°53.96 16.4207 4.5E-5 0.010902 -3.020363
2011-04-04 07:32:59 51°20.527 2°53.968 16.4232 4.5E-5 0.0109 -3.020363
2011-04-04 07:33:04 51°20.543 2°53.975 16.4244 4.5E-5 0.010899 -3.020363
2011-04-04 07:33:09 51°20.559 2°53.982 16.4365 4.5E-5 0.010898 -3.020363
2011-04-04 07:33:14 51°20.575 2°53.988 16.4377 4.5E-5 0.010898 -3.020363
2011-04-04 07:33:20 51°20.594 2°53.995 16.4305 4.5E-5 0.010897 -3.020363
2011-04-04 07:33:24 51°20.607 2°54 16.4524 4.5E-5 0.010896 -3.020363
2011-04-04 07:33:28 51°20.62 2°54.005 16.4413 4.5E-5 0.010895 -3.020363
2011-04-04 07:33:35 51°20.642 2°54.014 16.4469 4.5E-5 0.010895 -3.020363
2011-04-04 07:33:39 51°20.655 2°54.019 16.4479 4.5E-5 0.010893 -3.020363
2011-04-04 07:33:44 51°20.67 2°54.026 16.4445 4.5E-5 0.010893 -3.020363
2011-04-04 07:33:49 51°20.686 2°54.033 16.4431 4.5E-5 0.010893 -3.020363
2011-04-04 07:33:54 51°20.702 2°54.04 16.4449 4.5E-5 0.010892 -3.020363
2011-04-04 07:33:59 51°20.718 2°54.047 16.4468 4.5E-5 0.010891 -3.020363
2011-04-04 07:34:04 51°20.733 2°54.054 16.4518 4.5E-5 0.01089 -3.020363
2011-04-04 07:34:08 51°20.746 2°54.059 16.4508 4.5E-5 0.010889 -3.020363
2011-04-04 07:34:14 51°20.765 2°54.068 16.4553 4.5E-5 0.010889 -3.020363
2011-04-04 07:34:19 51°20.781 2°54.075 16.4445 4.5E-5 0.010888 -3.020363
2011-04-04 07:34:24 51°20.796 2°54.083 16.459 4.5E-5 0.010887 -3.020363
2011-04-04 07:34:29 51°20.812 2°54.09 16.4602 4.5E-5 0.010886 -3.020363
2011-04-04 07:34:34 51°20.828 2°54.097 16.4642 4.5E-5 0.010886 -3.020363
2011-04-04 07:34:39 51°20.844 2°54.105 16.4591 4.5E-5 0.010885 -3.020363
2011-04-04 07:34:44 51°20.859 2°54.112 16.4577 4.5E-5 0.010885 -3.020363
2011-04-04 07:34:48 51°20.872 2°54.118 16.464 4.5E-5 0.010884 -3.020363
2011-04-04 07:34:54 51°20.891 2°54.127 16.4596 4.5E-5 0.010883 -3.020363
2011-04-04 07:34:59 51°20.907 2°54.134 16.4619 4.5E-5 0.010882 -3.020363
2011-04-04 07:35:04 51°20.922 2°54.141 16.4671 4.5E-5 0.010882 -3.020363
2011-04-04 07:35:09 51°20.938 2°54.148 16.4669 4.5E-5 0.010881 -3.020363
2011-04-04 07:35:14 51°20.954 2°54.155 16.4707 4.5E-5 0.010881 -3.020363
2011-04-04 07:35:20 51°20.973 2°54.163 16.4626 4.5E-5 0.01088 -3.020363
2011-04-04 07:35:24 51°20.985 2°54.169 16.4797 4.5E-5 0.010879 -3.020363
2011-04-04 07:35:28 51°20.998 2°54.174 16.4765 4.5E-5 0.010879 -3.020363
2011-04-04 07:35:34 51°21.017 2°54.183 16.4713 4.5E-5 0.010878 -3.020363
2011-04-04 07:35:39 51°21.033 2°54.189 16.4697 4.5E-5 0.010877 -3.020363
2011-04-04 07:35:44 51°21.048 2°54.197 16.4826 4.5E-5 0.010877 -3.020363
2011-04-04 07:35:49 51°21.064 2°54.204 16.473 4.5E-5 0.010877 -3.020363
2011-04-04 07:35:54 51°21.08 2°54.212 16.4826 4.5E-5 0.010876 -3.020363
2011-04-04 07:36:00 51°21.099 2°54.219 16.4757 4.5E-5 0.010875 -3.020363
2011-04-04 07:36:04 51°21.112 2°54.225 16.4825 4.5E-5 0.010874 -3.020363
2011-04-04 07:36:08 51°21.124 2°54.23 16.4769 4.5E-5 0.010874 -3.020363
2011-04-04 07:36:14 51°21.144 2°54.239 16.4806 4.5E-5 0.010874 -3.020363
2011-04-04 07:36:19 51°21.16 2°54.245 16.476 4.5E-5 0.010873 -3.020363
2011-04-04 07:36:24 51°21.176 2°54.251 16.4873 4.5E-5 0.010872 -3.020363
2011-04-04 07:36:29 51°21.192 2°54.257 16.4864 4.5E-5 0.010871 -3.020363
2011-04-04 07:36:34 51°21.208 2°54.263 16.4888 4.5E-5 0.010871 -3.020363
2011-04-04 07:36:39 51°21.224 2°54.269 16.4889 4.5E-5 0.01087 -3.020363
2011-04-04 07:36:44 51°21.24 2°54.276 16.4902 4.5E-5 0.01087 -3.020363
2011-04-04 07:36:48 51°21.253 2°54.281 16.487 4.5E-5 0.01087 -3.020363
2011-04-04 07:36:54 51°21.272 2°54.29 16.4916 4.5E-5 0.010869 -3.020363
2011-04-04 07:36:59 51°21.288 2°54.297 16.4906 4.5E-5 0.010868 -3.020363
2011-04-04 07:37:04 51°21.303 2°54.305 16.493 4.5E-5 0.010867 -3.020363
2011-04-04 07:37:09 51°21.319 2°54.311 16.4949 4.5E-5 0.010867 -3.020363
2011-04-04 07:37:14 51°21.335 2°54.318 16.4958 4.5E-5 0.010867 -3.020363
2011-04-04 07:37:19 51°21.351 2°54.324 16.494 4.5E-5 0.010866 -3.020363
2011-04-04 07:37:24 51°21.367 2°54.332 16.4968 4.5E-5 0.010865 -3.020363
2011-04-04 07:37:29 51°21.383 2°54.338 16.5027 4.5E-5 0.010865 -3.020363
2011-04-04 07:37:34 51°21.399 2°54.345 16.4977 4.5E-5 0.010864 -3.020363
2011-04-04 07:37:40 51°21.418 2°54.353 16.4979 4.5E-5 0.010863 -3.020363
2011-04-04 07:37:44 51°21.431 2°54.357 16.5051 4.5E-5 0.010863 -3.020363
2011-04-04 07:37:49 51°21.447 2°54.364 16.5036 4.5E-5 0.010863 -3.020363
2011-04-04 07:37:54 51°21.462 2°54.37 16.5068 4.5E-5 0.010862 -3.020363
2011-04-04 07:38:00 51°21.481 2°54.378 16.5048 4.5E-5 0.010861 -3.020363
2011-04-04 07:38:04 51°21.494 2°54.383 16.509 4.5E-5 0.010861 -3.020363
2011-04-04 07:38:09 51°21.51 2°54.39 16.5069 4.5E-5 0.01086 -3.020363
2011-04-04 07:38:14 51°21.526 2°54.397 16.5089 4.5E-5 0.01086 -3.020363
2011-04-04 07:38:20 51°21.545 2°54.404 16.5128 4.5E-5 0.010859 -3.020363
2011-04-04 07:38:24 51°21.558 2°54.41 16.5116 4.5E-5 0.010859 -3.020363
2011-04-04 07:38:29 51°21.574 2°54.416 16.5146 4.5E-5 0.010858 -3.020363
2011-04-04 07:38:34 51°21.59 2°54.423 16.5135 4.5E-5 0.010857 -3.020363
2011-04-04 07:38:39 51°21.606 2°54.43 16.5136 4.5E-5 0.010857 -3.020363
2011-04-04 07:38:44 51°21.622 2°54.437 16.5181 4.5E-5 0.010857 -3.020363
2011-04-04 07:38:49 51°21.638 2°54.443 16.5174 4.5E-5 0.010856 -3.020363
2011-04-04 07:38:54 51°21.654 2°54.45 16.5176 4.5E-5 0.010855 -3.020363
2011-04-04 07:38:59 51°21.67 2°54.457 16.518 4.5E-5 0.010855 -3.020363
2011-04-04 07:39:04 51°21.686 2°54.464 16.5205 4.5E-5 0.010854 -3.020363
2011-04-04 07:39:08 51°21.699 2°54.469 16.5232 4.5E-5 0.010853 -3.020363
2011-04-04 07:39:14 51°21.718 2°54.477 16.5221 4.5E-5 0.010853 -3.020363
2011-04-04 07:39:19 51°21.734 2°54.483 16.522 4.5E-5 0.010853 -3.020363
2011-04-04 07:39:24 51°21.75 2°54.489 16.5239 4.5E-5 0.010852 -3.020363
2011-04-04 07:39:29 51°21.766 2°54.495 16.526 4.5E-5 0.010851 -3.020363
2011-04-04 07:39:34 51°21.782 2°54.501 16.5289 4.5E-5 0.010851 -3.020363
2011-04-04 07:39:40 51°21.801 2°54.509 16.5305 4.5E-5 0.01085 -3.020363
2011-04-04 07:39:44 51°21.814 2°54.513 16.5279 4.5E-5 0.01085 -3.020363
2011-04-04 07:39:48 51°21.827 2°54.519 16.5323 4.5E-5 0.01085 -3.020363
2011-04-04 07:39:54 51°21.846 2°54.527 16.5319 4.5E-5 0.010849 -3.020363
2011-04-04 07:39:59 51°21.862 2°54.533 16.5317 4.5E-5 0.010849 -3.020363
2011-04-04 07:40:04 51°21.878 2°54.54 16.5341 4.5E-5 0.010848 -3.020363
2011-04-04 07:40:09 51°21.894 2°54.546 16.5349 4.5E-5 0.010847 -3.020363
2011-04-04 07:40:14 51°21.909 2°54.553 16.535 4.5E-5 0.010847 -3.020363
2011-04-04 07:40:20 51°21.929 2°54.561 16.5379 4.5E-5 0.010847 -3.020363
2011-04-04 07:40:24 51°21.941 2°54.567 16.5375 4.5E-5 0.010846 -3.020363
2011-04-04 07:40:28 51°21.954 2°54.573 16.5387 4.5E-5 0.010845 -3.020363
2011-04-04 07:40:34 51°21.973 2°54.58 16.5393 4.5E-5 0.010844 -3.020363
2011-04-04 07:40:39 51°21.989 2°54.587 16.5411 4.5E-5 0.010844 -3.020363
2011-04-04 07:40:44 51°22.005 2°54.594 16.5415 4.5E-5 0.010844 -3.020363
2011-04-04 07:40:49 51°22.02 2°54.601 16.5428 4.5E-5 0.010843 -3.020363
2011-04-04 07:40:54 51°22.037 2°54.607 16.5424 4.5E-5 0.010842 -3.020363
2011-04-04 07:40:59 51°22.053 2°54.614 16.5456 4.5E-5 0.010842 -3.020363
2011-04-04 07:41:04 51°22.069 2°54.62 16.5461 4.5E-5 0.010841 -3.020363
2011-04-04 07:41:08 51°22.082 2°54.625 16.5467 4.5E-5 0.010841 -3.020363
2011-04-04 07:41:14 51°22.101 2°54.632 16.5478 4.5E-5 0.010841 -3.020363
2011-04-04 07:41:19 51°22.117 2°54.639 16.549 4.5E-5 0.01084 -3.020363
2011-04-04 07:41:24 51°22.134 2°54.644 16.5498 4.5E-5 0.010839 -3.020363
2011-04-04 07:41:29 51°22.15 2°54.65 16.5512 4.5E-5 0.010839 -3.020363
2011-04-04 07:41:34 51°22.166 2°54.657 16.5523 4.5E-5 0.010838 -3.020363
2011-04-04 07:41:39 51°22.182 2°54.662 16.5528 4.5E-5 0.010837 -3.020363
2011-04-04 07:41:44 51°22.198 2°54.669 16.5536 4.5E-5 0.010837 -3.020363
2011-04-04 07:41:48 51°22.211 2°54.674 16.5542 4.5E-5 0.010837 -3.020363
2011-04-04 07:41:54 51°22.23 2°54.682 16.5553 4.5E-5 0.010836 -3.020363
2011-04-04 07:41:59 51°22.247 2°54.689 16.556 4.5E-5 0.010835 -3.020363
2011-04-04 07:42:04 51°22.263 2°54.696 16.5564 4.5E-5 0.010834 -3.020363
2011-04-04 07:42:09 51°22.278 2°54.702 16.5584 4.5E-5 0.010834 -3.020363
2011-04-04 07:42:14 51°22.295 2°54.71 16.5594 4.5E-5 0.010834 -3.020363
2011-04-04 07:42:20 51°22.314 2°54.718 16.5607 4.5E-5 0.010833 -3.020363
2011-04-04 07:42:24 51°22.327 2°54.724 16.5631 4.5E-5 0.010832 -3.020363
2011-04-04 07:42:29 51°22.343 2°54.731 16.5618 4.5E-5 0.010831 -3.020363
2011-04-04 07:42:34 51°22.359 2°54.737 16.5647 4.5E-5 0.010831 -3.020363
2011-04-04 07:42:40 51°22.378 2°54.746 16.5648 4.5E-5 0.01083 -3.020363
2011-04-04 07:42:44 51°22.391 2°54.75 16.5664 4.5E-5 0.01083 -3.020363
2011-04-04 07:42:49 51°22.407 2°54.758 16.5652 4.5E-5 0.010829 -3.020363
2011-04-04 07:42:54 51°22.424 2°54.764 16.5683 4.5E-5 0.010828 -3.020363
2011-04-04 07:42:59 51°22.44 2°54.771 16.5687 4.5E-5 0.010828 -3.020363
2011-04-04 07:43:04 51°22.456 2°54.777 16.5707 4.5E-5 0.010827 -3.020363
2011-04-04 07:43:09 51°22.473 2°54.784 16.5703 4.5E-5 0.010826 -3.020363
2011-04-04 07:43:14 51°22.489 2°54.789 16.5722 4.5E-5 0.010826 -3.020363
2011-04-04 07:43:19 51°22.505 2°54.796 16.5732 4.5E-5 0.010825 -3.020363
2011-04-04 07:43:24 51°22.522 2°54.801 16.5734 4.5E-5 0.010824 -3.020363
2011-04-04 07:43:29 51°22.538 2°54.807 16.574 4.5E-5 0.010823 -3.020363
2011-04-04 07:43:34 51°22.554 2°54.813 16.5762 4.5E-5 0.010823 -3.020363
2011-04-04 07:43:39 51°22.57 2°54.819 16.5778 4.5E-5 0.010822 -3.020363
2011-04-04 07:43:44 51°22.586 2°54.825 16.5775 4.5E-5 0.010822 -3.020363
2011-04-04 07:43:49 51°22.602 2°54.832 16.5792 4.5E-5 0.010821 -3.020363
2011-04-04 07:43:54 51°22.618 2°54.839 16.5807 4.5E-5 0.01082 -3.020363
2011-04-04 07:43:59 51°22.634 2°54.845 16.5806 4.5E-5 0.010819 -3.020363
2011-04-04 07:44:04 51°22.65 2°54.852 16.5794 4.5E-5 0.010818 -3.020363
2011-04-04 07:44:08 51°22.663 2°54.856 16.5837 4.5E-5 0.010818 -3.020363
2011-04-04 07:44:14 51°22.682 2°54.863 16.5827 4.5E-5 0.010818 -3.020363
2011-04-04 07:44:19 51°22.698 2°54.869 16.5826 4.5E-5 0.010817 -3.020363
2011-04-04 07:44:24 51°22.714 2°54.875 16.5828 4.5E-5 0.010816 -3.020363
2011-04-04 07:44:29 51°22.731 2°54.88 16.5849 4.5E-5 0.010815 -3.020363
2011-04-04 07:44:34 51°22.747 2°54.887 16.5886 4.5E-5 0.010815 -3.020363
2011-04-04 07:44:40 51°22.766 2°54.894 16.5884 4.5E-5 0.010814 -3.020363
2011-04-04 07:44:44 51°22.779 2°54.9 16.5887 4.5E-5 0.010814 -3.020363
2011-04-04 07:44:48 51°22.791 2°54.905 16.5884 4.5E-5 0.010813 -3.020363
2011-04-04 07:44:54 51°22.811 2°54.913 16.5918 4.5E-5 0.010812 -3.020363
2011-04-04 07:44:59 51°22.827 2°54.919 16.5891 4.5E-5 0.010811 -3.020363
2011-04-04 07:45:04 51°22.843 2°54.926 16.5918 4.5E-5 0.01081 -3.020363
2011-04-04 07:45:09 51°22.859 2°54.932 16.5948 4.5E-5 0.01081 -3.020363
2011-04-04 07:45:14 51°22.875 2°54.939 16.597 4.5E-5 0.01081 -3.020363
2011-04-04 07:45:19 51°22.891 2°54.946 16.5935 4.5E-5 0.010808 -3.020363
2011-04-04 07:45:24 51°22.907 2°54.951 16.5965 4.5E-5 0.010808 -3.020363
2011-04-04 07:45:28 51°22.919 2°54.957 16.5941 4.5E-5 0.010807 -3.020363
2011-04-04 07:45:34 51°22.938 2°54.963 16.5993 4.5E-5 0.010806 -3.020363
2011-04-04 07:45:39 51°22.954 2°54.971 16.5968 4.5E-5 0.010806 -3.020363
2011-04-04 07:45:44 51°22.97 2°54.977 16.6014 4.5E-5 0.010806 -3.020363
2011-04-04 07:45:49 51°22.986 2°54.984 16.5985 4.5E-5 0.010805 -3.020363
2011-04-04 07:45:54 51°23.002 2°54.99 16.6035 4.5E-5 0.010804 -3.020363
2011-04-04 07:45:59 51°23.018 2°54.997 16.6007 4.5E-5 0.010803 -3.020363
2011-04-04 07:46:04 51°23.034 2°55.002 16.6018 4.5E-5 0.010802 -3.020363
2011-04-04 07:46:08 51°23.046 2°55.007 16.605 4.5E-5 0.010801 -3.020363
2011-04-04 07:46:14 51°23.066 2°55.014 16.6061 4.5E-5 0.010801 -3.020363
2011-04-04 07:46:19 51°23.082 2°55.021 16.6057 4.5E-5 0.010801 -3.020363
2011-04-04 07:46:24 51°23.097 2°55.028 16.6081 4.5E-5 0.0108 -3.020363
2011-04-04 07:46:29 51°23.113 2°55.034 16.6095 4.5E-5 0.010799 -3.020363
2011-04-04 07:46:34 51°23.129 2°55.041 16.6102 4.5E-5 0.010798 -3.020363
2011-04-04 07:46:40 51°23.148 2°55.05 16.6092 4.5E-5 0.010797 -3.020363
2011-04-04 07:46:44 51°23.16 2°55.055 16.6092 4.5E-5 0.010797 -3.020363
2011-04-04 07:46:48 51°23.173 2°55.06 16.6143 4.5E-5 0.010796 -3.020363
2011-04-04 07:46:54 51°23.192 2°55.069 16.6111 4.5E-5 0.010796 -3.020363
2011-04-04 07:46:59 51°23.207 2°55.076 16.6133 4.5E-5 0.010794 -3.020363